| time (UTC) | temp C | wind direction | speed KPH | gust KPH | rain 1hr cm | rain 24hr cm | rain mn cm | humidity % | barometer mb |
| 20260508044023 | 6 | 341 | 16.1 | 19.3 | 0.00 | 0.00 | 0.00 | 88 | 813.7 |
| 20260508043913 | 6 | 331 | 16.1 | 19.3 | 0.00 | 0.00 | 0.00 | 89 | 813.7 |
| 20260508043803 | 6 | 314 | 9.7 | 12.9 | 0.00 | 0.00 | 0.00 | 89 | 813.7 |
| 20260508043543 | 6 | 305 | 14.5 | 20.9 | 0.00 | 0.00 | 0.00 | 89 | 813.7 |
| 20260508043213 | 6 | 317 | 12.9 | 17.7 | 0.00 | 0.00 | 0.00 | 90 | 813.7 |
| 20260508043103 | 6 | 302 | 9.7 | 12.9 | 0.00 | 0.00 | 0.00 | 90 | 813.7 |
| 20260508042843 | 6 | 316 | 16.1 | 17.7 | 0.00 | 0.00 | 0.00 | 90 | 813.5 |
| 20260508042623 | 6 | 316 | 16.1 | 20.9 | 0.00 | 0.00 | 0.00 | 91 | 813.5 |
| 20260508042403 | 6 | 320 | 14.5 | 20.9 | 0.00 | 0.00 | 0.00 | 91 | 813.5 |
| 20260508042252 | 6 | 318 | 17.7 | 27.4 | 0.00 | 0.00 | 0.00 | 91 | 813.5 |
| 20260508042143 | 6 | 304 | 14.5 | 20.9 | 0.00 | 0.00 | 0.00 | 91 | 813.5 |
| 20260508042033 | 6 | 325 | 19.3 | 27.4 | 0.00 | 0.00 | 0.00 | 91 | 813.5 |
| 20260508041923 | 6 | 333 | 22.5 | 27.4 | 0.00 | 0.00 | 0.00 | 91 | 813.4 |
| 20260508041813 | 6 | 349 | 24.1 | 29.0 | 0.00 | 0.00 | 0.00 | 91 | 813.4 |
| 20260508041703 | 6 | 338 | 25.7 | 29.0 | 0.00 | 0.00 | 0.00 | 91 | 813.3 |
| 20260508041553 | 6 | 344 | 24.1 | 33.8 | 0.00 | 0.00 | 0.00 | 91 | 813.3 |
| 20260508041443 | 6 | 348 | 20.9 | 24.1 | 0.00 | 0.00 | 0.00 | 91 | 813.3 |
| 20260508041332 | 6 | 348 | 24.1 | 29.0 | 0.00 | 0.00 | 0.00 | 91 | 813.3 |
| 20260508041223 | 6 | 346 | 22.5 | 27.4 | 0.00 | 0.00 | 0.00 | 91 | 813.3 |
| 20260508041113 | 6 | 346 | 24.1 | 27.4 | 0.00 | 0.00 | 0.00 | 90 | 813.3 |
| 20260508041003 | 6 | 352 | 20.9 | 27.4 | 0.00 | 0.00 | 0.00 | 90 | 813.3 |
| 20260508040633 | 6 | 315 | 16.1 | 25.7 | 0.00 | 0.00 | 0.00 | 89 | 813.4 |
| 20260508040522 | 6 | 322 | 20.9 | 29.0 | 0.00 | 0.00 | 0.00 | 89 | 813.4 |
| 20260508040413 | 6 | 321 | 19.3 | 27.4 | 0.00 | 0.00 | 0.00 | 89 | 813.4 |
| 20260508040303 | 6 | 318 | 20.9 | 27.4 | 0.00 | 0.00 | 0.00 | 89 | 813.4 |
| 20260508040153 | 6 | 309 | 16.1 | 27.4 | 0.00 | 0.00 | 0.00 | 89 | 813.4 |
| 20260508040043 | 6 | 315 | 16.1 | 24.1 | 0.00 | 0.00 | 0.00 | 88 | 813.4 |
| 20260508035933 | 6 | 321 | 16.1 | 27.4 | 0.00 | 0.00 | 0.00 | 88 | 813.4 |
| 20260508035823 | 6 | 314 | 16.1 | 24.1 | 0.00 | 0.00 | 0.00 | 88 | 813.4 |
| 20260508035713 | 6 | 318 | 16.1 | 24.1 | 0.00 | 0.00 | 0.00 | 87 | 813.4 |
| 20260508035603 | 6 | 321 | 19.3 | 27.4 | 0.00 | 0.00 | 0.00 | 87 | 813.4 |
| 20260508035343 | 6 | 323 | 19.3 | 22.5 | 0.00 | 0.00 | 0.00 | 86 | 813.4 |
| 20260508035233 | 6 | 321 | 17.7 | 24.1 | 0.00 | 0.00 | 0.00 | 86 | 813.4 |
| 20260508035122 | 6 | 325 | 19.3 | 24.1 | 0.00 | 0.00 | 0.00 | 86 | 813.4 |
| 20260508035012 | 6 | 322 | 12.9 | 20.9 | 0.00 | 0.00 | 0.00 | 86 | 813.3 |
| 20260508034753 | 6 | 317 | 17.7 | 25.7 | 0.00 | 0.00 | 0.00 | 86 | 813.3 |
| 20260508034643 | 6 | 317 | 19.3 | 25.7 | 0.00 | 0.00 | 0.00 | 86 | 813.3 |
| 20260508034533 | 6 | 318 | 24.1 | 27.4 | 0.00 | 0.00 | 0.00 | 85 | 813.3 |
| 20260508034423 | 6 | 330 | 17.7 | 25.7 | 0.00 | 0.00 | 0.00 | 85 | 813.3 |
| 20260508034312 | 6 | 329 | 19.3 | 24.1 | 0.00 | 0.00 | 0.00 | 85 | 813.3 |
| 20260508034203 | 6 | 318 | 19.3 | 29.0 | 0.00 | 0.00 | 0.00 | 85 | 813.3 |
| 20260508034053 | 6 | 320 | 22.5 | 30.6 | 0.00 | 0.00 | 0.00 | 85 | 813.3 |
| 20260508033943 | 6 | 303 | 19.3 | 25.7 | 0.00 | 0.00 | 0.00 | 85 | 813.4 |
| 20260508033833 | 6 | 325 | 20.9 | 27.4 | 0.00 | 0.00 | 0.00 | 85 | 813.3 |
| 20260508033503 | 6 | 311 | 14.5 | 19.3 | 0.00 | 0.00 | 0.00 | 85 | 813.4 |
| 20260508033353 | 6 | 313 | 14.5 | 19.3 | 0.00 | 0.00 | 0.00 | 85 | 813.3 |
| 20260508033243 | 6 | 312 | 14.5 | 20.9 | 0.00 | 0.00 | 0.00 | 85 | 813.3 |
| 20260508033132 | 6 | 306 | 17.7 | 22.5 | 0.00 | 0.00 | 0.00 | 85 | 813.4 |
| 20260508033023 | 6 | 306 | 16.1 | 24.1 | 0.00 | 0.00 | 0.00 | 85 | 813.3 |
| 20260508032913 | 6 | 304 | 19.3 | 22.5 | 0.00 | 0.00 | 0.00 | 85 | 813.3 |
| 20260508032652 | 6 | 306 | 19.3 | 22.5 | 0.00 | 0.00 | 0.00 | 85 | 813.3 |
| 20260508032542 | 6 | 307 | 20.9 | 24.1 | 0.00 | 0.00 | 0.00 | 86 | 813.3 |
| 20260508032433 | 6 | 305 | 22.5 | 24.1 | 0.00 | 0.00 | 0.00 | 86 | 813.3 |
| 20260508032213 | 6 | 304 | 19.3 | 22.5 | 0.00 | 0.00 | 0.00 | 87 | 813.3 |
| 20260508032103 | 6 | 304 | 20.9 | 25.7 | 0.00 | 0.00 | 0.00 | 87 | 813.3 |
| 20260508031953 | 6 | 306 | 19.3 | 22.5 | 0.00 | 0.00 | 0.00 | 87 | 813.3 |
| 20260508031843 | 6 | 304 | 22.5 | 24.1 | 0.00 | 0.00 | 0.00 | 87 | 813.3 |
| 20260508031623 | 6 | 304 | 22.5 | 25.7 | 0.00 | 0.00 | 0.00 | 87 | 813.1 |
| 20260508031252 | 6 | 304 | 24.1 | 27.4 | 0.00 | 0.00 | 0.00 | 87 | 813.1 |
| 20260508031143 | 6 | 307 | 22.5 | 27.4 | 0.00 | 0.00 | 0.00 | 87 | 813.1 |
| 20260508031033 | 6 | 302 | 22.5 | 25.7 | 0.00 | 0.00 | 0.00 | 87 | 813.1 |
| 20260508030813 | 6 | 304 | 22.5 | 25.7 | 0.00 | 0.00 | 0.00 | 87 | 813.1 |
| 20260508030702 | 6 | 304 | 22.5 | 27.4 | 0.00 | 0.00 | 0.00 | 87 | 813.1 |
| 20260508030552 | 6 | 300 | 24.1 | 27.4 | 0.00 | 0.00 | 0.00 | 87 | 813.1 |
| 20260508030443 | 6 | 299 | 24.1 | 27.4 | 0.00 | 0.00 | 0.00 | 88 | 813.1 |
| 20260508030333 | 6 | 286 | 17.7 | 25.7 | 0.00 | 0.00 | 0.00 | 89 | 813.0 |
| 20260508030223 | 6 | 291 | 24.1 | 30.6 | 0.00 | 0.00 | 0.00 | 89 | 813.1 |
| 20260508030113 | 6 | 291 | 22.5 | 27.4 | 0.00 | 0.00 | 0.00 | 89 | 813.1 |
| 20260508030003 | 6 | 294 | 20.9 | 27.4 | 0.00 | 0.00 | 0.00 | 89 | 813.1 |
| 20260508025854 | 6 | 286 | 20.9 | 27.4 | 0.00 | 0.00 | 0.00 | 89 | 813.1 |
| 20260508025633 | 6 | 278 | 20.9 | 27.4 | 0.00 | 0.00 | 0.00 | 88 | 813.1 |
| 20260508025523 | 6 | 277 | 20.9 | 25.7 | 0.00 | 0.00 | 0.00 | 88 | 813.1 |
| 20260508025413 | 6 | 277 | 24.1 | 32.2 | 0.00 | 0.00 | 0.00 | 88 | 813.1 |
| 20260508025305 | 6 | 278 | 20.9 | 29.0 | 0.00 | 0.00 | 0.00 | 89 | 813.1 |
| 20260508025152 | 6 | 272 | 22.5 | 29.0 | 0.00 | 0.00 | 0.00 | 88 | 813.0 |
| 20260508024933 | 6 | 281 | 24.1 | 29.0 | 0.00 | 0.00 | 0.00 | 88 | 813.1 |
| 20260508024823 | 6 | 276 | 22.5 | 27.4 | 0.00 | 0.00 | 0.00 | 89 | 813.0 |
| 20260508024713 | 6 | 277 | 22.5 | 27.4 | 0.00 | 0.00 | 0.00 | 89 | 813.1 |
| 20260508024452 | 6 | 278 | 17.7 | 27.4 | 0.00 | 0.00 | 0.00 | 88 | 813.1 |
| 20260508024343 | 6 | 281 | 17.7 | 22.5 | 0.00 | 0.00 | 0.00 | 88 | 813.1 |
| 20260508024233 | 6 | 290 | 22.5 | 29.0 | 0.00 | 0.00 | 0.00 | 87 | 813.0 |
| 20260508024122 | 6 | 283 | 24.1 | 33.8 | 0.00 | 0.00 | 0.00 | 88 | 813.0 |
| 20260508023902 | 6 | 288 | 19.3 | 27.4 | 0.00 | 0.00 | 0.00 | 87 | 813.1 |
| 20260508023753 | 6 | 292 | 20.9 | 27.4 | 0.00 | 0.00 | 0.00 | 87 | 813.0 |
| 20260508023642 | 6 | 288 | 19.3 | 24.1 | 0.00 | 0.00 | 0.00 | 87 | 813.1 |
| 20260508023533 | 6 | 293 | 24.1 | 27.4 | 0.00 | 0.00 | 0.00 | 87 | 813.0 |
| 20260508023422 | 6 | 294 | 22.5 | 27.4 | 0.00 | 0.00 | 0.00 | 87 | 813.0 |
| 20260508023313 | 6 | 292 | 22.5 | 27.4 | 0.00 | 0.00 | 0.00 | 87 | 813.0 |
| 20260508023202 | 6 | 292 | 20.9 | 25.7 | 0.00 | 0.00 | 0.00 | 87 | 813.0 |
| 20260508023053 | 6 | 282 | 20.9 | 25.7 | 0.00 | 0.00 | 0.00 | 86 | 813.0 |
| 20260508022834 | 6 | 287 | 19.3 | 24.1 | 0.00 | 0.00 | 0.00 | 86 | 813.1 |
| 20260508022722 | 6 | 289 | 20.9 | 25.7 | 0.00 | 0.00 | 0.00 | 86 | 813.0 |
| 20260508022613 | 6 | 289 | 19.3 | 24.1 | 0.00 | 0.00 | 0.00 | 86 | 813.0 |
| 20260508022503 | 6 | 282 | 20.9 | 27.4 | 0.00 | 0.00 | 0.00 | 86 | 813.0 |
| 20260508022353 | 6 | 290 | 17.7 | 22.5 | 0.00 | 0.00 | 0.00 | 86 | 813.0 |
| 20260508022242 | 6 | 287 | 19.3 | 22.5 | 0.00 | 0.00 | 0.00 | 86 | 813.1 |
| 20260508022133 | 6 | 288 | 19.3 | 24.1 | 0.00 | 0.00 | 0.00 | 86 | 813.1 |
| 20260508022023 | 6 | 275 | 17.7 | 25.7 | 0.00 | 0.00 | 0.00 | 87 | 813.3 |
| 20260508021913 | 6 | 279 | 17.7 | 22.5 | 0.00 | 0.00 | 0.00 | 88 | 813.3 |
| 20260508021543 | 6 | 268 | 12.9 | 19.3 | 0.00 | 0.00 | 0.00 | 89 | 813.3 |
| 20260508021433 | 6 | 260 | 12.9 | 19.3 | 0.00 | 0.00 | 0.00 | 89 | 813.3 |
| 20260508021212 | 6 | 257 | 14.5 | 19.3 | 0.00 | 0.00 | 0.00 | 88 | 813.1 |
| 20260508021102 | 6 | 256 | 17.7 | 22.5 | 0.00 | 0.00 | 0.00 | 89 | 813.1 |
| 20260508020953 | 6 | 260 | 17.7 | 22.5 | 0.00 | 0.00 | 0.00 | 89 | 813.1 |
| 20260508020842 | 6 | 263 | 19.3 | 22.5 | 0.00 | 0.00 | 0.00 | 89 | 813.1 |
| 20260508020732 | 6 | 260 | 16.1 | 22.5 | 0.00 | 0.00 | 0.00 | 89 | 813.1 |
| 20260508020622 | 6 | 262 | 19.3 | 20.9 | 0.00 | 0.00 | 0.00 | 89 | 813.1 |
| 20260508020402 | 6 | 262 | 19.3 | 24.1 | 0.00 | 0.00 | 0.00 | 90 | 813.0 |
| 20260508020252 | 6 | 264 | 17.7 | 22.5 | 0.00 | 0.00 | 0.00 | 91 | 813.0 |
| 20260508020143 | 6 | 259 | 16.1 | 20.9 | 0.00 | 0.00 | 0.00 | 91 | 813.1 |
| 20260508020032 | 6 | 259 | 16.1 | 19.3 | 0.00 | 0.00 | 0.00 | 92 | 813.1 |
| 20260508015922 | 6 | 261 | 16.1 | 20.9 | 0.00 | 0.00 | 0.00 | 92 | 813.3 |
| 20260508015812 | 6 | 254 | 12.9 | 17.7 | 0.00 | 0.00 | 0.00 | 92 | 813.3 |
| 20260508015702 | 6 | 250 | 9.7 | 14.5 | 0.00 | 0.00 | 0.00 | 92 | 813.3 |
| 20260508015553 | 6 | 243 | 9.7 | 16.1 | 0.00 | 0.00 | 0.00 | 92 | 813.3 |
| 20260508015222 | 6 | 242 | 12.9 | 19.3 | 0.00 | 0.00 | 0.00 | 93 | 813.3 |
| 20260508015112 | 6 | 241 | 12.9 | 19.3 | 0.00 | 0.00 | 0.00 | 93 | 813.3 |
| 20260508015002 | 6 | 240 | 12.9 | 20.9 | 0.00 | 0.00 | 0.00 | 94 | 813.3 |
| 20260508014853 | 6 | 238 | 14.5 | 22.5 | 0.00 | 0.00 | 0.00 | 94 | 813.3 |
| 20260508014743 | 6 | 242 | 16.1 | 22.5 | 0.00 | 0.00 | 0.00 | 94 | 813.3 |
| 20260508014522 | 6 | 245 | 12.9 | 19.3 | 0.00 | 0.00 | 0.00 | 95 | 813.1 |
| 20260508014412 | 6 | 249 | 12.9 | 19.3 | 0.00 | 0.00 | 0.00 | 95 | 813.3 |
| 20260508014302 | 6 | 257 | 14.5 | 19.3 | 0.00 | 0.00 | 0.00 | 95 | 813.3 |
| 20260508014152 | 6 | 262 | 12.9 | 17.7 | 0.00 | 0.00 | 0.00 | 94 | 813.3 |
| 20260508014043 | 6 | 257 | 11.3 | 14.5 | 0.00 | 0.00 | 0.00 | 94 | 813.3 |
| 20260508013932 | 6 | 249 | 12.9 | 16.1 | 0.00 | 0.00 | 0.00 | 93 | 813.3 |
| 20260508013822 | 6 | 256 | 16.1 | 20.9 | 0.00 | 0.00 | 0.00 | 93 | 813.3 |
| 20260508013712 | 6 | 253 | 12.9 | 20.9 | 0.00 | 0.00 | 0.00 | 93 | 813.3 |
| 20260508013603 | 6 | 252 | 11.3 | 17.7 | 0.00 | 0.00 | 0.00 | 92 | 813.4 |
| 20260508013232 | 6 | 255 | 12.9 | 19.3 | 0.00 | 0.00 | 0.00 | 91 | 813.4 |
| 20260508013012 | 6 | 260 | 12.9 | 19.3 | 0.00 | 0.00 | 0.00 | 91 | 813.4 |
| 20260508012902 | 6 | 260 | 16.1 | 19.3 | 0.00 | 0.00 | 0.00 | 91 | 813.4 |
| 20260508012753 | 6 | 262 | 17.7 | 20.9 | 0.00 | 0.00 | 0.00 | 92 | 813.4 |
| 20260508012643 | 6 | 258 | 14.5 | 20.9 | 0.00 | 0.00 | 0.00 | 92 | 813.4 |
| 20260508012423 | 6 | 266 | 11.3 | 19.3 | 0.00 | 0.00 | 0.00 | 91 | 813.4 |
| 20260508012313 | 6 | 257 | 12.9 | 20.9 | 0.00 | 0.00 | 0.00 | 91 | 813.4 |
| 20260508012052 | 6 | 266 | 14.5 | 22.5 | 0.00 | 0.00 | 0.00 | 92 | 813.4 |
| 20260508011943 | 6 | 271 | 19.3 | 27.4 | 0.00 | 0.00 | 0.00 | 91 | 813.4 |
| 20260508011832 | 6 | 281 | 20.9 | 25.7 | 0.00 | 0.00 | 0.00 | 91 | 813.4 |
| 20260508011722 | 6 | 280 | 19.3 | 25.7 | 0.00 | 0.00 | 0.00 | 90 | 813.3 |
| 20260508011612 | 6 | 273 | 17.7 | 24.1 | 0.00 | 0.00 | 0.00 | 89 | 813.4 |
| 20260508011503 | 6 | 285 | 27.4 | 33.8 | 0.00 | 0.00 | 0.00 | 89 | 813.3 |
| 20260508011352 | 6 | 288 | 25.7 | 32.2 | 0.00 | 0.00 | 0.00 | 89 | 813.4 |
| 20260508011243 | 6 | 279 | 25.7 | 33.8 | 0.00 | 0.00 | 0.00 | 89 | 813.4 |
| 20260508011133 | 6 | 286 | 29.0 | 37.0 | 0.00 | 0.00 | 0.00 | 89 | 813.4 |
| 20260508011022 | 6 | 283 | 29.0 | 37.0 | 0.00 | 0.00 | 0.00 | 89 | 813.4 |
| 20260508010913 | 6 | 295 | 25.7 | 35.4 | 0.00 | 0.00 | 0.00 | 89 | 813.4 |
| 20260508010802 | 6 | 286 | 27.4 | 35.4 | 0.00 | 0.00 | 0.00 | 89 | 813.4 |
| 20260508010652 | 6 | 290 | 25.7 | 37.0 | 0.00 | 0.00 | 0.00 | 90 | 813.4 |
| 20260508010542 | 6 | 276 | 24.1 | 33.8 | 0.00 | 0.00 | 0.00 | 90 | 813.4 |
| 20260508010433 | 6 | 286 | 22.5 | 32.2 | 0.00 | 0.00 | 0.00 | 90 | 813.4 |
| 20260508010323 | 6 | 284 | 22.5 | 32.2 | 0.00 | 0.00 | 0.00 | 90 | 813.4 |
| 20260508010213 | 6 | 277 | 22.5 | 29.0 | 0.00 | 0.00 | 0.00 | 90 | 813.5 |
| 20260508005733 | 6 | 288 | 25.7 | 30.6 | 0.00 | 0.00 | 0.00 | 90 | 813.4 |
| 20260508005622 | 6 | 292 | 24.1 | 30.6 | 0.00 | 0.00 | 0.00 | 89 | 813.4 |
| 20260508005403 | 6 | 286 | 27.4 | 37.0 | 0.00 | 0.00 | 0.00 | 90 | 813.4 |
| 20260508005253 | 6 | 285 | 24.1 | 35.4 | 0.00 | 0.00 | 0.00 | 89 | 813.5 |
| 20260508005142 | 6 | 281 | 22.5 | 30.6 | 0.00 | 0.00 | 0.00 | 90 | 813.4 |
| 20260508005033 | 6 | 287 | 25.7 | 37.0 | 0.00 | 0.00 | 0.00 | 90 | 813.4 |
| 20260508004923 | 6 | 280 | 19.3 | 27.4 | 0.00 | 0.00 | 0.00 | 90 | 813.4 |
| 20260508004812 | 6 | 280 | 24.1 | 35.4 | 0.00 | 0.00 | 0.00 | 90 | 813.4 |
| 20260508004703 | 6 | 280 | 24.1 | 40.2 | 0.00 | 0.00 | 0.00 | 91 | 813.4 |
| 20260508004553 | 6 | 287 | 24.1 | 37.0 | 0.00 | 0.00 | 0.00 | 90 | 813.4 |
| 20260508004443 | 6 | 274 | 22.5 | 32.2 | 0.00 | 0.00 | 0.00 | 91 | 813.5 |
| 20260508004332 | 6 | 267 | 20.9 | 37.0 | 0.00 | 0.00 | 0.00 | 92 | 813.4 |
| 20260508004003 | 6 | 274 | 27.4 | 37.0 | 0.00 | 0.00 | 0.00 | 93 | 813.4 |
| 20260508003852 | 6 | 272 | 22.5 | 30.6 | 0.00 | 0.00 | 0.00 | 94 | 813.4 |
| 20260508003742 | 6 | 272 | 22.5 | 32.2 | 0.00 | 0.00 | 0.00 | 94 | 813.4 |
| 20260508003633 | 6 | 272 | 29.0 | 38.6 | 0.00 | 0.00 | 0.00 | 94 | 813.4 |
| 20260508003522 | 6 | 269 | 25.7 | 33.8 | 0.00 | 0.00 | 0.00 | 94 | 813.4 |
| 20260508003412 | 6 | 270 | 27.4 | 38.6 | 0.00 | 0.00 | 0.00 | 94 | 813.5 |
| 20260508003302 | 6 | 269 | 25.7 | 35.4 | 0.00 | 0.00 | 0.00 | 94 | 813.4 |
| 20260508003152 | 6 | 266 | 27.4 | 37.0 | 0.00 | 0.00 | 0.00 | 94 | 813.5 |
| 20260508003043 | 6 | 273 | 29.0 | 40.2 | 0.00 | 0.00 | 0.00 | 94 | 813.4 |
| 20260508002933 | 6 | 270 | 27.4 | 37.0 | 0.00 | 0.00 | 0.00 | 94 | 813.4 |
| 20260508002822 | 6 | 264 | 32.2 | 46.7 | 0.00 | 0.00 | 0.00 | 93 | 813.4 |
| 20260508002713 | 6 | 268 | 29.0 | 41.8 | 0.00 | 0.00 | 0.00 | 94 | 813.4 |
| 20260508002603 | 6 | 264 | 30.6 | 43.5 | 0.00 | 0.00 | 0.00 | 94 | 813.4 |
| 20260508002452 | 6 | 272 | 29.0 | 37.0 | 0.00 | 0.00 | 0.00 | 95 | 813.4 |
| 20260508002343 | 6 | 275 | 33.8 | 41.8 | 0.00 | 0.00 | 0.00 | 94 | 813.4 |
| 20260508002232 | 6 | 274 | 27.4 | 40.2 | 0.00 | 0.00 | 0.00 | 95 | 813.4 |
| 20260508002123 | 6 | 269 | 29.0 | 41.8 | 0.00 | 0.00 | 0.00 | 96 | 813.4 |
| 20260508001902 | 6 | 276 | 30.6 | 38.6 | 0.00 | 0.00 | 0.00 | 96 | 813.4 |
| 20260508001642 | 6 | 267 | 29.0 | 37.0 | 0.00 | 0.00 | 0.00 | 96 | 813.4 |
| 20260508001532 | 6 | 274 | 29.0 | 38.6 | 0.00 | 0.00 | 0.00 | 96 | 813.4 |
| 20260508001422 | 6 | 277 | 27.4 | 37.0 | 0.00 | 0.00 | 0.00 | 96 | 813.4 |
| 20260508001313 | 6 | 273 | 27.4 | 37.0 | 0.00 | 0.00 | 0.00 | 96 | 813.4 |
| 20260508001203 | 6 | 272 | 27.4 | 43.5 | 0.00 | 0.00 | 0.00 | 97 | 813.5 |
| 20260508001052 | 6 | 273 | 27.4 | 33.8 | 0.00 | 0.00 | 0.00 | 97 | 813.5 |
| 20260508000943 | 6 | 273 | 25.7 | 38.6 | 0.00 | 0.00 | 0.00 | 97 | 813.4 |
| 20260508000833 | 6 | 272 | 25.7 | 35.4 | 0.00 | 0.00 | 0.00 | 97 | 813.4 |
| 20260508000722 | 6 | 270 | 24.1 | 32.2 | 0.00 | 0.00 | 0.00 | 97 | 813.7 |
| 20260508000612 | 6 | 266 | 24.1 | 35.4 | 0.00 | 0.00 | 0.00 | 97 | 813.5 |
| 20260508000503 | 6 | 272 | 24.1 | 35.4 | 0.00 | 0.00 | 0.00 | 97 | 813.7 |
| 20260508000352 | 6 | 272 | 24.1 | 32.2 | 0.00 | 0.00 | 0.00 | 97 | 813.5 |
| 20260508000242 | 6 | 273 | 25.7 | 33.8 | 0.00 | 0.00 | 0.00 | 97 | 813.5 |
| 20260508000133 | 6 | 268 | 24.1 | 33.8 | 0.00 | 0.00 | 0.00 | 97 | 813.5 |
| 20260508000022 | 6 | 258 | 19.3 | 29.0 | 0.00 | 0.00 | 0.00 | 97 | 813.4 |
| 20260507235652 | 6 | 253 | 16.1 | 29.0 | 0.00 | 0.00 | 0.00 | 96 | 813.7 |
| 20260507235432 | 6 | 254 | 20.9 | 37.0 | 0.00 | 0.00 | 0.00 | 96 | 813.7 |
| 20260507235322 | 6 | 254 | 17.7 | 32.2 | 0.00 | 0.00 | 0.00 | 96 | 813.7 |
| 20260507235212 | 6 | 249 | 16.1 | 32.2 | 0.00 | 0.00 | 0.00 | 96 | 813.5 |
| 20260507235102 | 6 | 255 | 19.3 | 32.2 | 0.00 | 0.00 | 0.00 | 96 | 813.5 |
| 20260507234952 | 6 | 243 | 17.7 | 27.4 | 0.00 | 0.00 | 0.00 | 96 | 813.5 |
| 20260507234842 | 6 | 250 | 17.7 | 32.2 | 0.00 | 0.00 | 0.00 | 96 | 813.7 |
| 20260507234733 | 6 | 249 | 17.7 | 27.4 | 0.00 | 0.00 | 0.00 | 96 | 813.5 |
| 20260507234402 | 6 | 244 | 16.1 | 30.6 | 0.00 | 0.00 | 0.00 | 96 | 813.4 |
| 20260507234144 | 6 | 245 | 12.9 | 24.1 | 0.00 | 0.00 | 0.00 | 96 | 813.5 |
| 20260507234034 | 6 | 241 | 14.5 | 25.7 | 0.00 | 0.00 | 0.00 | 96 | 813.7 |
| 20260507233922 | 6 | 238 | 17.7 | 27.4 | 0.00 | 0.00 | 0.00 | 96 | 813.5 |
| 20260507233812 | 6 | 241 | 19.3 | 29.0 | 0.00 | 0.00 | 0.00 | 96 | 813.5 |
| 20260507233703 | 6 | 246 | 19.3 | 29.0 | 0.00 | 0.00 | 0.00 | 96 | 813.7 |
| 20260507233552 | 6 | 248 | 14.5 | 29.0 | 0.00 | 0.00 | 0.00 | 96 | 813.7 |
| 20260507233443 | 6 | 240 | 17.7 | 27.4 | 0.00 | 0.00 | 0.00 | 96 | 813.5 |
| 20260507233222 | 6 | 236 | 16.1 | 24.1 | 0.00 | 0.00 | 0.00 | 96 | 813.7 |
| 20260507233112 | 6 | 237 | 17.7 | 27.4 | 0.00 | 0.00 | 0.00 | 96 | 813.7 |
| 20260507233002 | 6 | 239 | 16.1 | 24.1 | 0.00 | 0.00 | 0.00 | 95 | 813.7 |
| 20260507232742 | 6 | 243 | 16.1 | 27.4 | 0.00 | 0.00 | 0.00 | 95 | 813.7 |
| 20260507232632 | 6 | 242 | 19.3 | 27.4 | 0.00 | 0.00 | 0.00 | 94 | 813.7 |
| 20260507232522 | 6 | 233 | 14.5 | 24.1 | 0.00 | 0.00 | 0.00 | 94 | 813.7 |
| 20260507232306 | 6 | 245 | 22.5 | 30.6 | 0.00 | 0.00 | 0.00 | 94 | 813.8 |
| 20260507232152 | 6 | 243 | 22.5 | 29.0 | 0.00 | 0.00 | 0.00 | 94 | 813.7 |
| 20260507232042 | 6 | 244 | 20.9 | 29.0 | 0.00 | 0.00 | 0.00 | 94 | 813.5 |
| 20260507231823 | 6 | 247 | 17.7 | 29.0 | 0.00 | 0.00 | 0.00 | 93 | 813.8 |
| 20260507231712 | 6 | 248 | 19.3 | 27.4 | 0.00 | 0.00 | 0.00 | 93 | 813.8 |
| 20260507231602 | 6 | 245 | 24.1 | 33.8 | 0.00 | 0.00 | 0.00 | 93 | 813.7 |
| 20260507231452 | 6 | 247 | 24.1 | 32.2 | 0.00 | 0.00 | 0.00 | 92 | 813.7 |
| 20260507231232 | 6 | 246 | 27.4 | 33.8 | 0.00 | 0.00 | 0.00 | 92 | 813.7 |
| 20260507231012 | 6 | 248 | 22.5 | 32.2 | 0.00 | 0.00 | 0.00 | 92 | 813.8 |
| 20260507230902 | 6 | 240 | 20.9 | 32.2 | 0.00 | 0.00 | 0.00 | 92 | 813.8 |
| 20260507230642 | 6 | 245 | 25.7 | 32.2 | 0.00 | 0.00 | 0.00 | 92 | 813.5 |
| 20260507230533 | 6 | 245 | 24.1 | 33.8 | 0.00 | 0.00 | 0.00 | 92 | 813.7 |
| 20260507230202 | 6 | 245 | 20.9 | 30.6 | 0.00 | 0.00 | 0.00 | 93 | 813.8 |
| 20260507230052 | 6 | 244 | 25.7 | 33.8 | 0.00 | 0.00 | 0.00 | 93 | 813.7 |
| 20260507225942 | 6 | 241 | 24.1 | 33.8 | 0.00 | 0.00 | 0.00 | 93 | 813.7 |
| 20260507225832 | 6 | 234 | 19.3 | 29.0 | 0.00 | 0.00 | 0.00 | 93 | 813.7 |
| 20260507225722 | 6 | 244 | 22.5 | 32.2 | 0.00 | 0.00 | 0.00 | 93 | 813.7 |
| 20260507225612 | 6 | 246 | 20.9 | 30.6 | 0.00 | 0.00 | 0.00 | 93 | 813.8 |
| 20260507225502 | 6 | 241 | 24.1 | 35.4 | 0.00 | 0.00 | 0.00 | 93 | 813.8 |
| 20260507225352 | 6 | 240 | 24.1 | 33.8 | 0.00 | 0.00 | 0.00 | 93 | 813.5 |
| 20260507225242 | 6 | 239 | 19.3 | 37.0 | 0.00 | 0.00 | 0.00 | 93 | 813.8 |
| 20260507225132 | 6 | 245 | 20.9 | 37.0 | 0.00 | 0.00 | 0.00 | 94 | 813.8 |
| 20260507224912 | 6 | 244 | 22.5 | 33.8 | 0.00 | 0.00 | 0.00 | 94 | 813.8 |
| 20260507224652 | 6 | 241 | 24.1 | 35.4 | 0.00 | 0.00 | 0.00 | 94 | 813.7 |
| 20260507224542 | 6 | 244 | 22.5 | 38.6 | 0.00 | 0.00 | 0.00 | 94 | 813.7 |
| 20260507224432 | 6 | 240 | 20.9 | 30.6 | 0.00 | 0.00 | 0.00 | 94 | 813.8 |
| 20260507224322 | 6 | 237 | 17.7 | 32.2 | 0.00 | 0.00 | 0.00 | 94 | 813.8 |
| 20260507224212 | 6 | 237 | 22.5 | 32.2 | 0.00 | 0.00 | 0.00 | 94 | 813.8 |
| 20260507224102 | 6 | 244 | 22.5 | 38.6 | 0.00 | 0.00 | 0.00 | 95 | 813.8 |
| 20260507223952 | 6 | 244 | 22.5 | 33.8 | 0.00 | 0.00 | 0.00 | 95 | 813.8 |
| 20260507223842 | 6 | 240 | 22.5 | 32.2 | 0.00 | 0.00 | 0.00 | 95 | 813.8 |
| 20260507223732 | 6 | 245 | 20.9 | 29.0 | 0.00 | 0.00 | 0.00 | 95 | 813.8 |
| 20260507223622 | 6 | 248 | 19.3 | 30.6 | 0.00 | 0.00 | 0.00 | 96 | 813.8 |
| 20260507223512 | 6 | 244 | 25.7 | 37.0 | 0.00 | 0.00 | 0.00 | 96 | 813.8 |
| 20260507223402 | 6 | 244 | 27.4 | 35.4 | 0.00 | 0.00 | 0.00 | 96 | 813.8 |
| 20260507223252 | 6 | 248 | 20.9 | 35.4 | 0.00 | 0.00 | 0.00 | 96 | 813.8 |
| 20260507222922 | 6 | 245 | 22.5 | 38.6 | 0.00 | 0.00 | 0.00 | 97 | 813.8 |
| 20260507222812 | 6 | 247 | 20.9 | 35.4 | 0.00 | 0.00 | 0.00 | 98 | 813.8 |
| 20260507222702 | 6 | 248 | 19.3 | 32.2 | 0.00 | 0.00 | 0.00 | 98 | 813.9 |
| 20260507222552 | 6 | 248 | 19.3 | 27.4 | 0.00 | 0.00 | 0.00 | 98 | 813.9 |
| 20260507222442 | 6 | 243 | 20.9 | 33.8 | 0.00 | 0.00 | 0.00 | 98 | 813.9 |
| 20260507222332 | 6 | 246 | 24.1 | 35.4 | 0.00 | 0.00 | 0.00 | 99 | 813.8 |
| 20260507222222 | 6 | 253 | 24.1 | 35.4 | 0.00 | 0.00 | 0.00 | 99 | 813.8 |
| 20260507222112 | 6 | 252 | 20.9 | 35.4 | 0.00 | 0.00 | 0.00 | 99 | 813.8 |
| 20260507222002 | 6 | 249 | 20.9 | 32.2 | 0.00 | 0.00 | 0.00 | 99 | 814.1 |
| 20260507221852 | 6 | 245 | 17.7 | 27.4 | 0.00 | 0.00 | 0.00 | 99 | 813.9 |
| 20260507221522 | 6 | 249 | 22.5 | 35.4 | 0.00 | 0.00 | 0.00 | 10 | 813.8 |
| 20260507221412 | 6 | 246 | 17.7 | 30.6 | 0.00 | 0.00 | 0.00 | 10 | 813.9 |
| 20260507221302 | 6 | 250 | 20.9 | 37.0 | 0.00 | 0.00 | 0.00 | 10 | 813.8 |
| 20260507221152 | 6 | 251 | 20.9 | 33.8 | 0.00 | 0.00 | 0.00 | 10 | 813.9 |
| 20260507221042 | 6 | 248 | 19.3 | 30.6 | 0.00 | 0.00 | 0.00 | 10 | 813.9 |
| 20260507220932 | 6 | 247 | 16.1 | 27.4 | 0.00 | 0.00 | 0.00 | 10 | 814.1 |
| 20260507220822 | 6 | 247 | 14.5 | 27.4 | 0.00 | 0.00 | 0.00 | 10 | 814.2 |
| 20260507220712 | 6 | 244 | 16.1 | 29.0 | 0.00 | 0.00 | 0.00 | 10 | 814.1 |
| 20260507220602 | 6 | 239 | 14.5 | 29.0 | 0.00 | 0.00 | 0.00 | 10 | 814.1 |
| 20260507220452 | 6 | 244 | 14.5 | 22.5 | 0.00 | 0.00 | 0.00 | 10 | 814.1 |
| 20260507220122 | 6 | 240 | 16.1 | 25.7 | 0.00 | 0.00 | 0.00 | 10 | 814.2 |
| 20260507220012 | 6 | 246 | 12.9 | 24.1 | 0.00 | 0.00 | 0.00 | 10 | 814.1 |
| 20260507215902 | 6 | 234 | 11.3 | 19.3 | 0.00 | 0.00 | 0.00 | 10 | 813.9 |
| 20260507215752 | 6 | 242 | 12.9 | 20.9 | 0.00 | 0.00 | 0.00 | 10 | 813.9 |
| 20260507215642 | 6 | 247 | 16.1 | 30.6 | 0.00 | 0.00 | 0.00 | 10 | 813.9 |
| 20260507215422 | 6 | 243 | 14.5 | 24.1 | 0.00 | 0.00 | 0.00 | 10 | 814.1 |
| 20260507215312 | 6 | 241 | 14.5 | 22.5 | 0.00 | 0.00 | 0.00 | 10 | 813.9 |
| 20260507215202 | 6 | 244 | 12.9 | 25.7 | 0.00 | 0.00 | 0.00 | 10 | 814.1 |
| 20260507215052 | 6 | 242 | 14.5 | 24.1 | 0.00 | 0.00 | 0.00 | 10 | 814.1 |
| 20260507214942 | 6 | 245 | 16.1 | 25.7 | 0.00 | 0.00 | 0.00 | 10 | 813.9 |
| 20260507214833 | 6 | 250 | 16.1 | 25.7 | 0.00 | 0.00 | 0.00 | 10 | 813.9 |
| 20260507214502 | 6 | 243 | 14.5 | 24.1 | 0.00 | 0.00 | 0.00 | 10 | 813.9 |
| 20260507214352 | 6 | 242 | 16.1 | 25.7 | 0.00 | 0.00 | 0.00 | 10 | 814.1 |
| 20260507214132 | 6 | 240 | 14.5 | 25.7 | 0.00 | 0.00 | 0.00 | 10 | 813.9 |
| 20260507213912 | 6 | 241 | 16.1 | 24.1 | 0.00 | 0.00 | 0.00 | 10 | 813.9 |
| 20260507213802 | 6 | 249 | 14.5 | 27.4 | 0.00 | 0.00 | 0.00 | 10 | 813.9 |
| 20260507213652 | 6 | 243 | 14.5 | 29.0 | 0.00 | 0.00 | 0.00 | 10 | 813.9 |
| 20260507213542 | 6 | 239 | 14.5 | 24.1 | 0.00 | 0.00 | 0.00 | 10 | 813.9 |
| 20260507213432 | 6 | 243 | 17.7 | 27.4 | 0.00 | 0.00 | 0.00 | 10 | 813.9 |
| 20260507213322 | 6 | 244 | 19.3 | 27.4 | 0.00 | 0.00 | 0.00 | 10 | 814.1 |
| 20260507213212 | 6 | 245 | 17.7 | 30.6 | 0.00 | 0.00 | 0.00 | 10 | 814.1 |
| 20260507213102 | 6 | 237 | 14.5 | 27.4 | 0.00 | 0.00 | 0.00 | 10 | 814.1 |
| 20260507212952 | 6 | 241 | 14.5 | 22.5 | 0.00 | 0.00 | 0.00 | 10 | 814.1 |
| 20260507212842 | 6 | 243 | 16.1 | 24.1 | 0.00 | 0.00 | 0.00 | 10 | 814.2 |
| 20260507212732 | 6 | 239 | 17.7 | 27.4 | 0.00 | 0.00 | 0.00 | 10 | 814.2 |
| 20260507212622 | 6 | 242 | 17.7 | 27.4 | 0.00 | 0.00 | 0.00 | 10 | 814.2 |
| 20260507212512 | 6 | 237 | 14.5 | 24.1 | 0.00 | 0.00 | 0.00 | 10 | 814.1 |
| 20260507212402 | 6 | 237 | 16.1 | 30.6 | 0.00 | 0.00 | 0.00 | 10 | 814.2 |
| 20260507212252 | 6 | 240 | 17.7 | 27.4 | 0.00 | 0.00 | 0.00 | 10 | 814.2 |
| 20260507212142 | 6 | 241 | 16.1 | 24.1 | 0.00 | 0.00 | 0.00 | 10 | 814.1 |
| 20260507212032 | 6 | 246 | 17.7 | 30.6 | 0.00 | 0.00 | 0.00 | 10 | 814.2 |
| 20260507211922 | 6 | 241 | 16.1 | 24.1 | 0.00 | 0.00 | 0.00 | 10 | 814.2 |
| 20260507211812 | 6 | 244 | 16.1 | 29.0 | 0.00 | 0.00 | 0.00 | 10 | 813.9 |
| 20260507211702 | 6 | 242 | 19.3 | 30.6 | 0.00 | 0.00 | 0.00 | 10 | 813.9 |
| 20260507211552 | 6 | 243 | 19.3 | 29.0 | 0.00 | 0.00 | 0.00 | 10 | 813.9 |
| 20260507211332 | 6 | 243 | 14.5 | 20.9 | 0.00 | 0.00 | 0.00 | 99 | 814.2 |
| 20260507211222 | 6 | 241 | 16.1 | 29.0 | 0.00 | 0.00 | 0.00 | 99 | 814.2 |
| 20260507211112 | 6 | 241 | 16.1 | 25.7 | 0.00 | 0.00 | 0.00 | 99 | 814.2 |
| 20260507211002 | 6 | 243 | 16.1 | 24.1 | 0.00 | 0.00 | 0.00 | 99 | 814.2 |
| 20260507210852 | 6 | 242 | 16.1 | 27.4 | 0.00 | 0.00 | 0.00 | 99 | 814.1 |
| 20260507210742 | 6 | 242 | 19.3 | 33.8 | 0.00 | 0.00 | 0.00 | 99 | 814.1 |
| 20260507210522 | 6 | 242 | 17.7 | 27.4 | 0.00 | 0.00 | 0.00 | 99 | 813.9 |
| 20260507210412 | 6 | 245 | 20.9 | 29.0 | 0.00 | 0.00 | 0.00 | 99 | 813.9 |
| 20260507210302 | 6 | 251 | 20.9 | 29.0 | 0.00 | 0.00 | 0.00 | 98 | 814.1 |
| 20260507210152 | 6 | 247 | 17.7 | 30.6 | 0.00 | 0.00 | 0.00 | 98 | 814.1 |
| 20260507210042 | 6 | 237 | 17.7 | 30.6 | 0.00 | 0.00 | 0.00 | 98 | 814.2 |
| 20260507205933 | 6 | 239 | 16.1 | 27.4 | 0.00 | 0.00 | 0.00 | 98 | 814.2 |
| 20260507205822 | 6 | 240 | 16.1 | 30.6 | 0.00 | 0.00 | 0.00 | 98 | 814.1 |
| 20260507205712 | 6 | 237 | 14.5 | 25.7 | 0.00 | 0.00 | 0.00 | 98 | 814.2 |
| 20260507205602 | 6 | 238 | 17.7 | 27.4 | 0.00 | 0.00 | 0.00 | 99 | 814.1 |
| 20260507205342 | 6 | 246 | 19.3 | 32.2 | 0.00 | 0.00 | 0.00 | 98 | 813.9 |
| 20260507205232 | 6 | 239 | 17.7 | 29.0 | 0.00 | 0.00 | 0.00 | 98 | 814.1 |
| 20260507205012 | 6 | 233 | 19.3 | 37.0 | 0.00 | 0.00 | 0.00 | 98 | 813.8 |
| 20260507204902 | 6 | 238 | 16.1 | 29.0 | 0.00 | 0.00 | 0.00 | 97 | 813.9 |
| 20260507204752 | 6 | 232 | 16.1 | 27.4 | 0.00 | 0.00 | 0.00 | 97 | 813.9 |
| 20260507204642 | 6 | 232 | 17.7 | 30.6 | 0.00 | 0.00 | 0.00 | 96 | 813.8 |
| 20260507204532 | 6 | 237 | 20.9 | 30.6 | 0.00 | 0.00 | 0.00 | 96 | 813.8 |
| 20260507204422 | 6 | 241 | 20.9 | 30.6 | 0.00 | 0.00 | 0.00 | 97 | 813.8 |
| 20260507204312 | 6 | 238 | 20.9 | 35.4 | 0.00 | 0.00 | 0.00 | 96 | 813.8 |
| 20260507204202 | 6 | 239 | 19.3 | 30.6 | 0.00 | 0.00 | 0.00 | 96 | 813.8 |
| 20260507204052 | 6 | 239 | 19.3 | 29.0 | 0.00 | 0.00 | 0.00 | 96 | 813.9 |
| 20260507203942 | 6 | 244 | 20.9 | 32.2 | 0.00 | 0.00 | 0.00 | 96 | 813.9 |
| 20260507203832 | 6 | 243 | 20.9 | 32.2 | 0.00 | 0.00 | 0.00 | 96 | 813.8 |
| 20260507203722 | 6 | 240 | 19.3 | 27.4 | 0.00 | 0.00 | 0.00 | 96 | 813.9 |
| 20260507203612 | 6 | 233 | 17.7 | 29.0 | 0.00 | 0.00 | 0.00 | 96 | 813.9 |
| 20260507203502 | 6 | 236 | 19.3 | 30.6 | 0.00 | 0.00 | 0.00 | 96 | 813.9 |
| 20260507203352 | 6 | 241 | 22.5 | 35.4 | 0.00 | 0.00 | 0.00 | 96 | 813.8 |
| 20260507203242 | 6 | 245 | 20.9 | 35.4 | 0.00 | 0.00 | 0.00 | 97 | 813.8 |
| 20260507203132 | 6 | 239 | 17.7 | 29.0 | 0.00 | 0.00 | 0.00 | 97 | 813.9 |
| 20260507203022 | 6 | 237 | 16.1 | 29.0 | 0.00 | 0.00 | 0.00 | 97 | 813.9 |
| 20260507202912 | 6 | 233 | 19.3 | 27.4 | 0.00 | 0.00 | 0.00 | 97 | 813.9 |
| 20260507202802 | 6 | 238 | 20.9 | 35.4 | 0.00 | 0.00 | 0.00 | 97 | 813.9 |
| 20260507202652 | 6 | 237 | 19.3 | 27.4 | 0.00 | 0.00 | 0.00 | 97 | 813.9 |
| 20260507202432 | 6 | 237 | 16.1 | 24.1 | 0.00 | 0.00 | 0.00 | 97 | 814.1 |
| 20260507202322 | 6 | 235 | 17.7 | 25.7 | 0.00 | 0.00 | 0.00 | 97 | 813.8 |
| 20260507202212 | 6 | 237 | 20.9 | 33.8 | 0.00 | 0.00 | 0.00 | 97 | 813.8 |
| 20260507202102 | 6 | 241 | 22.5 | 35.4 | 0.00 | 0.00 | 0.00 | 97 | 813.8 |
| 20260507201952 | 6 | 239 | 19.3 | 30.6 | 0.00 | 0.00 | 0.00 | 97 | 813.9 |
| 20260507201842 | 6 | 238 | 16.1 | 29.0 | 0.00 | 0.00 | 0.00 | 97 | 813.9 |
| 20260507201732 | 6 | 239 | 19.3 | 27.4 | 0.00 | 0.00 | 0.00 | 97 | 813.9 |
| 20260507201622 | 6 | 243 | 20.9 | 27.4 | 0.00 | 0.00 | 0.00 | 97 | 813.9 |
| 20260507201402 | 6 | 242 | 22.5 | 30.6 | 0.00 | 0.00 | 0.00 | 97 | 813.9 |
| 20260507201252 | 6 | 243 | 22.5 | 35.4 | 0.00 | 0.00 | 0.00 | 97 | 813.9 |
| 20260507201142 | 6 | 236 | 19.3 | 29.0 | 0.00 | 0.00 | 0.00 | 97 | 813.9 |
| 20260507201032 | 6 | 237 | 20.9 | 35.4 | 0.00 | 0.00 | 0.00 | 98 | 813.9 |
| 20260507200922 | 6 | 238 | 19.3 | 29.0 | 0.00 | 0.00 | 0.00 | 98 | 813.9 |
| 20260507200812 | 6 | 239 | 20.9 | 30.6 | 0.00 | 0.00 | 0.00 | 98 | 813.9 |
| 20260507200702 | 6 | 239 | 20.9 | 30.6 | 0.00 | 0.00 | 0.00 | 98 | 814.1 |
| 20260507200552 | 6 | 237 | 19.3 | 29.0 | 0.00 | 0.00 | 0.00 | 99 | 814.1 |
| 20260507200442 | 6 | 237 | 19.3 | 29.0 | 0.00 | 0.00 | 0.00 | 99 | 814.1 |
| 20260507200332 | 6 | 240 | 19.3 | 27.4 | 0.00 | 0.00 | 0.00 | 10 | 814.1 |
| 20260507200222 | 6 | 242 | 19.3 | 27.4 | 0.00 | 0.00 | 0.00 | 10 | 813.9 |
| 20260507200112 | 6 | 246 | 20.9 | 30.6 | 0.00 | 0.00 | 0.00 | 99 | 814.2 |
| 20260507200002 | 6 | 241 | 17.7 | 27.4 | 0.00 | 0.00 | 0.00 | 99 | 814.2 |
| 20260507195852 | 6 | 238 | 19.3 | 29.0 | 0.00 | 0.00 | 0.00 | 99 | 814.1 |
| 20260507195632 | 6 | 244 | 20.9 | 29.0 | 0.00 | 0.00 | 0.00 | 10 | 814.2 |
| 20260507195522 | 6 | 242 | 19.3 | 29.0 | 0.00 | 0.00 | 0.00 | 10 | 814.2 |
| 20260507195412 | 6 | 242 | 17.7 | 25.7 | 0.00 | 0.00 | 0.00 | 99 | 814.1 |
| 20260507195305 | 6 | 239 | 20.9 | 30.6 | 0.00 | 0.00 | 0.00 | 99 | 814.1 |
| 20260507195152 | 6 | 242 | 19.3 | 27.4 | 0.00 | 0.00 | 0.00 | 99 | 814.2 |
| 20260507194932 | 6 | 243 | 20.9 | 33.8 | 0.00 | 0.00 | 0.00 | 99 | 814.1 |
| 20260507194822 | 6 | 249 | 24.1 | 35.4 | 0.00 | 0.00 | 0.00 | 99 | 814.1 |
| 20260507194712 | 6 | 246 | 22.5 | 35.4 | 0.00 | 0.00 | 0.00 | 99 | 813.9 |
| 20260507194602 | 6 | 247 | 20.9 | 37.0 | 0.00 | 0.00 | 0.00 | 99 | 813.9 |
| 20260507194452 | 6 | 245 | 19.3 | 30.6 | 0.00 | 0.00 | 0.00 | 99 | 813.9 |
| 20260507194342 | 6 | 246 | 19.3 | 40.2 | 0.00 | 0.00 | 0.00 | 98 | 814.1 |
| 20260507194232 | 6 | 242 | 20.9 | 29.0 | 0.00 | 0.00 | 0.00 | 98 | 814.1 |
| 20260507194122 | 6 | 246 | 20.9 | 33.8 | 0.00 | 0.00 | 0.00 | 98 | 814.1 |
| 20260507194012 | 6 | 244 | 22.5 | 30.6 | 0.00 | 0.00 | 0.00 | 98 | 813.9 |
| 20260507193902 | 6 | 244 | 24.1 | 33.8 | 0.00 | 0.00 | 0.00 | 98 | 813.9 |
| 20260507193752 | 6 | 246 | 20.9 | 32.2 | 0.00 | 0.00 | 0.00 | 97 | 814.1 |
| 20260507193642 | 6 | 237 | 20.9 | 32.2 | 0.00 | 0.00 | 0.00 | 97 | 814.2 |
| 20260507193422 | 6 | 244 | 19.3 | 32.2 | 0.00 | 0.00 | 0.00 | 96 | 814.2 |
| 20260507193312 | 6 | 241 | 20.9 | 29.0 | 0.00 | 0.00 | 0.00 | 96 | 814.1 |
| 20260507193202 | 6 | 239 | 17.7 | 25.7 | 0.00 | 0.00 | 0.00 | 96 | 814.2 |
| 20260507193052 | 6 | 238 | 19.3 | 29.0 | 0.00 | 0.00 | 0.00 | 95 | 814.2 |
| 20260507192832 | 6 | 242 | 20.9 | 29.0 | 0.00 | 0.00 | 0.00 | 94 | 814.2 |
| 20260507192722 | 6 | 244 | 17.7 | 27.4 | 0.00 | 0.00 | 0.00 | 94 | 814.2 |
| 20260507192612 | 6 | 240 | 16.1 | 24.1 | 0.00 | 0.00 | 0.00 | 94 | 814.2 |
| 20260507192502 | 6 | 240 | 19.3 | 30.6 | 0.00 | 0.00 | 0.00 | 93 | 814.2 |
| 20260507192352 | 6 | 244 | 20.9 | 32.2 | 0.00 | 0.00 | 0.00 | 92 | 814.2 |
| 20260507192242 | 6 | 244 | 20.9 | 33.8 | 0.00 | 0.00 | 0.00 | 92 | 814.2 |
| 20260507192132 | 6 | 241 | 20.9 | 30.6 | 0.00 | 0.00 | 0.00 | 91 | 814.3 |
| 20260507192022 | 6 | 235 | 17.7 | 30.6 | 0.00 | 0.00 | 0.00 | 92 | 814.2 |
| 20260507191912 | 6 | 243 | 22.5 | 29.0 | 0.00 | 0.00 | 0.00 | 91 | 814.2 |
| 20260507191802 | 6 | 239 | 19.3 | 29.0 | 0.00 | 0.00 | 0.00 | 91 | 814.2 |
| 20260507191652 | 6 | 240 | 19.3 | 29.0 | 0.00 | 0.00 | 0.00 | 91 | 814.2 |
| 20260507191432 | 7 | 239 | 20.9 | 32.2 | 0.00 | 0.00 | 0.00 | 91 | 814.2 |
| 20260507191322 | 7 | 242 | 24.1 | 33.8 | 0.00 | 0.00 | 0.00 | 91 | 814.2 |
| 20260507191102 | 7 | 234 | 17.7 | 27.4 | 0.00 | 0.00 | 0.00 | 90 | 814.2 |
| 20260507190952 | 7 | 236 | 19.3 | 32.2 | 0.00 | 0.00 | 0.00 | 90 | 814.2 |
| 20260507190842 | 7 | 238 | 22.5 | 35.4 | 0.00 | 0.00 | 0.00 | 90 | 814.2 |
| 20260507190732 | 7 | 238 | 22.5 | 33.8 | 0.00 | 0.00 | 0.00 | 90 | 814.2 |
| 20260507190512 | 7 | 240 | 20.9 | 29.0 | 0.00 | 0.00 | 0.00 | 90 | 814.2 |
| 20260507190252 | 7 | 241 | 22.5 | 32.2 | 0.00 | 0.00 | 0.00 | 90 | 814.2 |
| 20260507190142 | 7 | 237 | 19.3 | 32.2 | 0.00 | 0.00 | 0.00 | 90 | 814.2 |
| 20260507185812 | 7 | 246 | 19.3 | 29.0 | 0.00 | 0.00 | 0.00 | 90 | 814.2 |
| 20260507185702 | 7 | 241 | 17.7 | 27.4 | 0.00 | 0.00 | 0.00 | 90 | 814.2 |
| 20260507185552 | 7 | 243 | 20.9 | 33.8 | 0.00 | 0.00 | 0.00 | 90 | 814.2 |
| 20260507185442 | 7 | 242 | 22.5 | 33.8 | 0.00 | 0.00 | 0.00 | 90 | 814.2 |
| 20260507185332 | 7 | 238 | 19.3 | 32.2 | 0.00 | 0.00 | 0.00 | 90 | 814.2 |
| 20260507185222 | 7 | 244 | 22.5 | 33.8 | 0.00 | 0.00 | 0.00 | 90 | 814.2 |
| 20260507185112 | 7 | 249 | 24.1 | 37.0 | 0.00 | 0.00 | 0.00 | 90 | 814.2 |
| 20260507185002 | 7 | 246 | 24.1 | 37.0 | 0.00 | 0.00 | 0.00 | 90 | 814.2 |
| 20260507184852 | 7 | 245 | 24.1 | 33.8 | 0.00 | 0.00 | 0.00 | 90 | 814.2 |
| 20260507184742 | 7 | 246 | 19.3 | 30.6 | 0.00 | 0.00 | 0.00 | 89 | 814.2 |
| 20260507184522 | 7 | 244 | 24.1 | 37.0 | 0.00 | 0.00 | 0.00 | 89 | 814.2 |
| 20260507184412 | 7 | 243 | 20.9 | 32.2 | 0.00 | 0.00 | 0.00 | 89 | 814.2 |
| 20260507184302 | 7 | 245 | 22.5 | 35.4 | 0.00 | 0.00 | 0.00 | 89 | 814.2 |
| 20260507184152 | 7 | 242 | 22.5 | 33.8 | 0.00 | 0.00 | 0.00 | 89 | 814.2 |
| 20260507184042 | 7 | 243 | 19.3 | 32.2 | 0.00 | 0.00 | 0.00 | 89 | 814.2 |
| 20260507183932 | 7 | 241 | 19.3 | 29.0 | 0.00 | 0.00 | 0.00 | 89 | 814.2 |
| 20260507183822 | 7 | 244 | 20.9 | 30.6 | 0.00 | 0.00 | 0.00 | 89 | 814.2 |
| 20260507183602 | 7 | 242 | 19.3 | 27.4 | 0.00 | 0.00 | 0.00 | 89 | 814.2 |
| 20260507183452 | 7 | 242 | 19.3 | 30.6 | 0.00 | 0.00 | 0.00 | 89 | 814.2 |
| 20260507183342 | 7 | 241 | 20.9 | 32.2 | 0.00 | 0.00 | 0.00 | 89 | 814.2 |
| 20260507183122 | 7 | 241 | 20.9 | 30.6 | 0.00 | 0.00 | 0.00 | 89 | 814.2 |
| 20260507183012 | 7 | 245 | 20.9 | 29.0 | 0.00 | 0.00 | 0.00 | 89 | 814.2 |
| 20260507182902 | 7 | 244 | 20.9 | 30.6 | 0.00 | 0.00 | 0.00 | 89 | 814.1 |
| 20260507182532 | 7 | 244 | 22.5 | 32.2 | 0.00 | 0.00 | 0.00 | 88 | 814.1 |
| 20260507182422 | 7 | 243 | 19.3 | 29.0 | 0.00 | 0.00 | 0.00 | 88 | 814.1 |
| 20260507182312 | 7 | 246 | 19.3 | 30.6 | 0.00 | 0.00 | 0.00 | 88 | 814.1 |
| 20260507182202 | 7 | 248 | 25.7 | 35.4 | 0.00 | 0.00 | 0.00 | 88 | 814.2 |
| 20260507182052 | 7 | 246 | 24.1 | 35.4 | 0.00 | 0.00 | 0.00 | 88 | 814.2 |
| 20260507181942 | 7 | 247 | 22.5 | 33.8 | 0.00 | 0.00 | 0.00 | 89 | 814.1 |
| 20260507181832 | 7 | 246 | 19.3 | 33.8 | 0.00 | 0.00 | 0.00 | 89 | 814.1 |
| 20260507181722 | 7 | 243 | 22.5 | 35.4 | 0.00 | 0.00 | 0.00 | 89 | 814.1 |
| 20260507181612 | 7 | 244 | 24.1 | 38.6 | 0.00 | 0.00 | 0.00 | 88 | 813.9 |
| 20260507181352 | 7 | 245 | 20.9 | 33.8 | 0.00 | 0.00 | 0.00 | 89 | 813.8 |
| 20260507181242 | 7 | 246 | 24.1 | 35.4 | 0.00 | 0.00 | 0.00 | 89 | 813.8 |
| 20260507181132 | 7 | 246 | 22.5 | 32.2 | 0.00 | 0.00 | 0.00 | 89 | 813.9 |
| 20260507181022 | 7 | 248 | 22.5 | 30.6 | 0.00 | 0.00 | 0.00 | 89 | 813.8 |
| 20260507180802 | 7 | 247 | 24.1 | 37.0 | 0.00 | 0.00 | 0.00 | 90 | 813.8 |
| 20260507180653 | 7 | 250 | 24.1 | 37.0 | 0.00 | 0.00 | 0.00 | 89 | 813.9 |
| 20260507180432 | 7 | 248 | 30.6 | 40.2 | 0.00 | 0.00 | 0.00 | 89 | 813.8 |
| 20260507180323 | 7 | 250 | 30.6 | 40.2 | 0.00 | 0.00 | 0.00 | 90 | 813.8 |
| 20260507180212 | 7 | 248 | 24.1 | 37.0 | 0.00 | 0.00 | 0.00 | 90 | 813.9 |
| 20260507175952 | 7 | 249 | 30.6 | 43.5 | 0.00 | 0.00 | 0.00 | 89 | 813.8 |
| 20260507175842 | 7 | 249 | 29.0 | 43.5 | 0.00 | 0.00 | 0.00 | 89 | 813.7 |
| 20260507175734 | 7 | 248 | 29.0 | 40.2 | 0.00 | 0.00 | 0.00 | 89 | 813.7 |
| 20260507175623 | 7 | 249 | 29.0 | 40.2 | 0.00 | 0.00 | 0.00 | 89 | 813.8 |
| 20260507175512 | 7 | 244 | 25.7 | 40.2 | 0.00 | 0.00 | 0.00 | 89 | 813.8 |
| 20260507175402 | 7 | 247 | 24.1 | 37.0 | 0.00 | 0.00 | 0.00 | 89 | 813.8 |
| 20260507175252 | 7 | 253 | 24.1 | 37.0 | 0.00 | 0.00 | 0.00 | 89 | 813.8 |
| 20260507175142 | 7 | 250 | 25.7 | 33.8 | 0.00 | 0.00 | 0.00 | 89 | 813.8 |
| 20260507175032 | 7 | 247 | 27.4 | 37.0 | 0.00 | 0.00 | 0.00 | 89 | 813.8 |
| 20260507174922 | 7 | 250 | 25.7 | 38.6 | 0.00 | 0.00 | 0.00 | 89 | 813.8 |
| 20260507174812 | 7 | 250 | 24.1 | 37.0 | 0.00 | 0.00 | 0.00 | 89 | 813.8 |
| 20260507174552 | 7 | 247 | 22.5 | 33.8 | 0.00 | 0.00 | 0.00 | 88 | 813.8 |
| 20260507174442 | 7 | 248 | 22.5 | 38.6 | 0.00 | 0.00 | 0.00 | 88 | 813.8 |
| 20260507174332 | 7 | 246 | 24.1 | 32.2 | 0.00 | 0.00 | 0.00 | 88 | 813.8 |
| 20260507174222 | 7 | 250 | 24.1 | 35.4 | 0.00 | 0.00 | 0.00 | 87 | 813.9 |
| 20260507174112 | 7 | 252 | 27.4 | 40.2 | 0.00 | 0.00 | 0.00 | 88 | 813.8 |
| 20260507174002 | 7 | 247 | 27.4 | 38.6 | 0.00 | 0.00 | 0.00 | 88 | 813.8 |
| 20260507173852 | 7 | 246 | 29.0 | 38.6 | 0.00 | 0.00 | 0.00 | 88 | 813.9 |
| 20260507173742 | 7 | 247 | 22.5 | 37.0 | 0.00 | 0.00 | 0.00 | 88 | 813.8 |
| 20260507173632 | 7 | 247 | 27.4 | 38.6 | 0.00 | 0.00 | 0.00 | 88 | 813.8 |
| 20260507173522 | 7 | 247 | 24.1 | 38.6 | 0.00 | 0.00 | 0.00 | 88 | 813.8 |
| 20260507173412 | 7 | 247 | 20.9 | 30.6 | 0.00 | 0.00 | 0.00 | 88 | 813.8 |
| 20260507173302 | 7 | 243 | 24.1 | 32.2 | 0.00 | 0.00 | 0.00 | 88 | 813.8 |
| 20260507172932 | 7 | 251 | 25.7 | 35.4 | 0.00 | 0.00 | 0.00 | 88 | 813.8 |
| 20260507172822 | 7 | 238 | 19.3 | 33.8 | 0.00 | 0.00 | 0.00 | 89 | 813.8 |
| 20260507172602 | 7 | 248 | 20.9 | 30.6 | 0.00 | 0.00 | 0.00 | 89 | 813.8 |
| 20260507172452 | 7 | 245 | 20.9 | 33.8 | 0.00 | 0.00 | 0.00 | 89 | 813.8 |
| 20260507172342 | 7 | 244 | 20.9 | 30.6 | 0.00 | 0.00 | 0.00 | 89 | 813.8 |
| 20260507172232 | 7 | 246 | 20.9 | 30.6 | 0.00 | 0.00 | 0.00 | 89 | 813.9 |
| 20260507172122 | 7 | 245 | 20.9 | 30.6 | 0.00 | 0.00 | 0.00 | 89 | 813.9 |
| 20260507172012 | 7 | 241 | 19.3 | 27.4 | 0.00 | 0.00 | 0.00 | 89 | 814.1 |
| 20260507171902 | 7 | 244 | 19.3 | 29.0 | 0.00 | 0.00 | 0.00 | 89 | 813.9 |
| 20260507171532 | 7 | 244 | 19.3 | 33.8 | 0.00 | 0.00 | 0.00 | 89 | 814.2 |
| 20260507171312 | 7 | 248 | 24.1 | 30.6 | 0.00 | 0.00 | 0.00 | 88 | 813.9 |
| 20260507171202 | 7 | 247 | 25.7 | 33.8 | 0.00 | 0.00 | 0.00 | 88 | 813.9 |
| 20260507171052 | 7 | 246 | 24.1 | 37.0 | 0.00 | 0.00 | 0.00 | 87 | 813.9 |
| 20260507170942 | 7 | 245 | 22.5 | 33.8 | 0.00 | 0.00 | 0.00 | 87 | 813.8 |
| 20260507170832 | 7 | 242 | 24.1 | 38.6 | 0.00 | 0.00 | 0.00 | 88 | 813.9 |
| 20260507170722 | 7 | 247 | 24.1 | 33.8 | 0.00 | 0.00 | 0.00 | 88 | 813.8 |
| 20260507170612 | 7 | 246 | 24.1 | 37.0 | 0.00 | 0.00 | 0.00 | 89 | 813.9 |
| 20260507170502 | 7 | 243 | 19.3 | 30.6 | 0.00 | 0.00 | 0.00 | 88 | 813.9 |
| 20260507170352 | 7 | 244 | 19.3 | 27.4 | 0.00 | 0.00 | 0.00 | 88 | 813.9 |
| 20260507170242 | 7 | 246 | 20.9 | 35.4 | 0.00 | 0.00 | 0.00 | 88 | 814.1 |
| 20260507170132 | 7 | 245 | 25.7 | 33.8 | 0.00 | 0.00 | 0.00 | 88 | 813.8 |
| 20260507170022 | 7 | 249 | 24.1 | 35.4 | 0.00 | 0.00 | 0.00 | 88 | 813.8 |
| 20260507165912 | 7 | 249 | 22.5 | 33.8 | 0.00 | 0.00 | 0.00 | 88 | 813.8 |
| 20260507165802 | 7 | 245 | 19.3 | 29.0 | 0.00 | 0.00 | 0.00 | 88 | 813.8 |
| 20260507165652 | 7 | 244 | 19.3 | 25.7 | 0.00 | 0.00 | 0.00 | 88 | 813.9 |
| 20260507165542 | 7 | 239 | 19.3 | 32.2 | 0.00 | 0.00 | 0.00 | 88 | 813.9 |
| 20260507165432 | 7 | 240 | 22.5 | 32.2 | 0.00 | 0.00 | 0.00 | 88 | 813.8 |
| 20260507165212 | 7 | 244 | 22.5 | 32.2 | 0.00 | 0.00 | 0.00 | 88 | 813.8 |
| 20260507165102 | 7 | 246 | 20.9 | 29.0 | 0.00 | 0.00 | 0.00 | 88 | 813.8 |
| 20260507164842 | 7 | 254 | 20.9 | 35.4 | 0.00 | 0.00 | 0.00 | 88 | 813.8 |
| 20260507164732 | 7 | 247 | 20.9 | 35.4 | 0.00 | 0.00 | 0.00 | 88 | 813.8 |
| 20260507164621 | 7 | 245 | 22.5 | 32.2 | 0.00 | 0.00 | 0.00 | 88 | 813.8 |
| 20260507164512 | 7 | 246 | 24.1 | 37.0 | 0.00 | 0.00 | 0.00 | 88 | 813.8 |
| 20260507164402 | 7 | 246 | 22.5 | 38.6 | 0.00 | 0.00 | 0.00 | 88 | 813.9 |
| 20260507164252 | 7 | 241 | 20.9 | 33.8 | 0.00 | 0.00 | 0.00 | 88 | 813.9 |
| 20260507164032 | 7 | 243 | 19.3 | 30.6 | 0.00 | 0.00 | 0.00 | 87 | 813.8 |
| 20260507163811 | 7 | 236 | 19.3 | 29.0 | 0.00 | 0.00 | 0.00 | 87 | 813.8 |
| 20260507163702 | 7 | 243 | 19.3 | 27.4 | 0.00 | 0.00 | 0.00 | 87 | 813.8 |
| 20260507163552 | 7 | 243 | 19.3 | 27.4 | 0.00 | 0.00 | 0.00 | 87 | 813.8 |
| 20260507163442 | 7 | 242 | 17.7 | 25.7 | 0.00 | 0.00 | 0.00 | 87 | 813.9 |
| 20260507163222 | 7 | 245 | 19.3 | 25.7 | 0.00 | 0.00 | 0.00 | 87 | 813.8 |
| 20260507163112 | 7 | 239 | 19.3 | 35.4 | 0.00 | 0.00 | 0.00 | 87 | 813.9 |
| 20260507163002 | 7 | 230 | 16.1 | 27.4 | 0.00 | 0.00 | 0.00 | 87 | 813.9 |
| 20260507162852 | 7 | 236 | 19.3 | 29.0 | 0.00 | 0.00 | 0.00 | 86 | 813.8 |
| 20260507162522 | 7 | 239 | 19.3 | 27.4 | 0.00 | 0.00 | 0.00 | 86 | 813.8 |
| 20260507162412 | 7 | 236 | 17.7 | 27.4 | 0.00 | 0.00 | 0.00 | 86 | 813.8 |
| 20260507162152 | 7 | 233 | 16.1 | 25.7 | 0.00 | 0.00 | 0.00 | 86 | 813.9 |
| 20260507162042 | 7 | 241 | 17.7 | 27.4 | 0.00 | 0.00 | 0.00 | 86 | 813.9 |
| 20260507161932 | 7 | 242 | 19.3 | 30.6 | 0.00 | 0.00 | 0.00 | 86 | 813.9 |
| 20260507161822 | 7 | 243 | 19.3 | 29.0 | 0.00 | 0.00 | 0.00 | 85 | 813.9 |
| 20260507161712 | 8 | 246 | 19.3 | 30.6 | 0.00 | 0.00 | 0.00 | 85 | 813.9 |
| 20260507161602 | 8 | 234 | 17.7 | 29.0 | 0.00 | 0.00 | 0.00 | 84 | 814.1 |
| 20260507161452 | 8 | 234 | 16.1 | 22.5 | 0.00 | 0.00 | 0.00 | 84 | 814.2 |
| 20260507161342 | 8 | 232 | 19.3 | 29.0 | 0.00 | 0.00 | 0.00 | 84 | 813.9 |
| 20260507161121 | 8 | 242 | 19.3 | 30.6 | 0.00 | 0.00 | 0.00 | 83 | 813.9 |
| 20260507161012 | 8 | 245 | 17.7 | 29.0 | 0.00 | 0.00 | 0.00 | 83 | 814.1 |
| 20260507160902 | 8 | 249 | 17.7 | 30.6 | 0.00 | 0.00 | 0.00 | 83 | 814.1 |
| 20260507160752 | 8 | 241 | 16.1 | 27.4 | 0.00 | 0.00 | 0.00 | 83 | 814.1 |
| 20260507160642 | 8 | 240 | 16.1 | 24.1 | 0.00 | 0.00 | 0.00 | 83 | 814.1 |
| 20260507160532 | 8 | 244 | 17.7 | 30.6 | 0.00 | 0.00 | 0.00 | 82 | 813.9 |
| 20260507160422 | 8 | 242 | 17.7 | 25.7 | 0.00 | 0.00 | 0.00 | 81 | 813.9 |
| 20260507160202 | 8 | 241 | 17.7 | 25.7 | 0.00 | 0.00 | 0.00 | 81 | 814.1 |
| 20260507160051 | 8 | 245 | 20.9 | 30.6 | 0.00 | 0.00 | 0.00 | 81 | 813.9 |
| 20260507155942 | 8 | 244 | 19.3 | 29.0 | 0.00 | 0.00 | 0.00 | 81 | 814.1 |
| 20260507155831 | 8 | 248 | 19.3 | 30.6 | 0.00 | 0.00 | 0.00 | 80 | 814.2 |
| 20260507155722 | 8 | 237 | 17.7 | 27.4 | 0.00 | 0.00 | 0.00 | 80 | 814.2 |
| 20260507155612 | 8 | 244 | 17.7 | 25.7 | 0.00 | 0.00 | 0.00 | 80 | 814.1 |
| 20260507155352 | 9 | 239 | 19.3 | 30.6 | 0.00 | 0.00 | 0.00 | 79 | 813.9 |
| 20260507155241 | 9 | 238 | 19.3 | 32.2 | 0.00 | 0.00 | 0.00 | 78 | 813.9 |
| 20260507155132 | 9 | 241 | 17.7 | 29.0 | 0.00 | 0.00 | 0.00 | 77 | 814.1 |
| 20260507155022 | 10 | 237 | 17.7 | 24.1 | 0.00 | 0.00 | 0.00 | 76 | 814.1 |
| 20260507154912 | 10 | 242 | 17.7 | 24.1 | 0.00 | 0.00 | 0.00 | 76 | 814.2 |
| 20260507154652 | 10 | 236 | 17.7 | 27.4 | 0.00 | 0.00 | 0.00 | 76 | 814.1 |
| 20260507154542 | 10 | 242 | 17.7 | 29.0 | 0.00 | 0.00 | 0.00 | 77 | 814.1 |
| 20260507154431 | 10 | 238 | 16.1 | 27.4 | 0.00 | 0.00 | 0.00 | 77 | 814.2 |
| 20260507154321 | 10 | 237 | 16.1 | 24.1 | 0.00 | 0.00 | 0.00 | 76 | 814.2 |
| 20260507154212 | 10 | 239 | 19.3 | 30.6 | 0.00 | 0.00 | 0.00 | 76 | 814.2 |
| 20260507154101 | 10 | 238 | 16.1 | 27.4 | 0.00 | 0.00 | 0.00 | 76 | 814.1 |
| 20260507153951 | 10 | 242 | 19.3 | 30.6 | 0.00 | 0.00 | 0.00 | 77 | 814.1 |
| 20260507153841 | 10 | 245 | 16.1 | 27.4 | 0.00 | 0.00 | 0.00 | 77 | 814.1 |
| 20260507153732 | 10 | 237 | 17.7 | 27.4 | 0.00 | 0.00 | 0.00 | 76 | 814.2 |
| 20260507153511 | 10 | 243 | 17.7 | 29.0 | 0.00 | 0.00 | 0.00 | 76 | 814.2 |
| 20260507153401 | 10 | 245 | 17.7 | 27.4 | 0.00 | 0.00 | 0.00 | 75 | 814.2 |
| 20260507153252 | 10 | 244 | 19.3 | 33.8 | 0.00 | 0.00 | 0.00 | 75 | 814.1 |
| 20260507152811 | 10 | 242 | 16.1 | 29.0 | 0.00 | 0.00 | 0.00 | 74 | 814.1 |
| 20260507152551 | 10 | 235 | 16.1 | 24.1 | 0.00 | 0.00 | 0.00 | 73 | 814.2 |
| 20260507152442 | 10 | 239 | 16.1 | 25.7 | 0.00 | 0.00 | 0.00 | 72 | 814.2 |
| 20260507152332 | 10 | 247 | 17.7 | 27.4 | 0.00 | 0.00 | 0.00 | 74 | 814.2 |
| 20260507152221 | 10 | 251 | 20.9 | 35.4 | 0.00 | 0.00 | 0.00 | 74 | 814.2 |
| 20260507152112 | 10 | 247 | 17.7 | 27.4 | 0.00 | 0.00 | 0.00 | 75 | 814.2 |
| 20260507152002 | 10 | 242 | 16.1 | 25.7 | 0.00 | 0.00 | 0.00 | 74 | 814.2 |
| 20260507151851 | 10 | 247 | 16.1 | 29.0 | 0.00 | 0.00 | 0.00 | 74 | 814.2 |
| 20260507151742 | 10 | 241 | 19.3 | 25.7 | 0.00 | 0.00 | 0.00 | 73 | 814.2 |
| 20260507151631 | 10 | 244 | 17.7 | 27.4 | 0.00 | 0.00 | 0.00 | 73 | 814.2 |
| 20260507151521 | 10 | 246 | 19.3 | 30.6 | 0.00 | 0.00 | 0.00 | 72 | 814.2 |
| 20260507151412 | 10 | 236 | 17.7 | 30.6 | 0.00 | 0.00 | 0.00 | 72 | 814.3 |
| 20260507151302 | 11 | 234 | 17.7 | 25.7 | 0.00 | 0.00 | 0.00 | 72 | 814.2 |
| 20260507151044 | 11 | 239 | 19.3 | 30.6 | 0.00 | 0.00 | 0.00 | 70 | 814.2 |
| 20260507150932 | 11 | 237 | 17.7 | 25.7 | 0.00 | 0.00 | 0.00 | 70 | 814.2 |
| 20260507150821 | 11 | 243 | 17.7 | 30.6 | 0.00 | 0.00 | 0.00 | 71 | 814.3 |
| 20260507150712 | 11 | 242 | 20.9 | 37.0 | 0.00 | 0.00 | 0.00 | 70 | 814.2 |
| 20260507150602 | 11 | 240 | 16.1 | 30.6 | 0.00 | 0.00 | 0.00 | 71 | 814.3 |
| 20260507150342 | 11 | 234 | 16.1 | 20.9 | 0.00 | 0.00 | 0.00 | 70 | 814.3 |
| 20260507150012 | 11 | 236 | 14.5 | 27.4 | 0.00 | 0.00 | 0.00 | 71 | 814.3 |
| 20260507145754 | 11 | 247 | 20.9 | 35.4 | 0.00 | 0.00 | 0.00 | 70 | 814.3 |
| 20260507145655 | 11 | 233 | 17.7 | 33.8 | 0.00 | 0.00 | 0.00 | 70 | 814.6 |
| 20260507145532 | 11 | 241 | 16.1 | 27.4 | 0.00 | 0.00 | 0.00 | 72 | 814.3 |
| 20260507145423 | 11 | 245 | 14.5 | 25.7 | 0.00 | 0.00 | 0.00 | 72 | 814.5 |
| 20260507145311 | 11 | 254 | 24.1 | 43.5 | 0.00 | 0.00 | 0.00 | 71 | 814.3 |
| 20260507145201 | 11 | 246 | 16.1 | 25.7 | 0.00 | 0.00 | 0.00 | 71 | 814.3 |
| 20260507145052 | 11 | 236 | 11.3 | 19.3 | 0.00 | 0.00 | 0.00 | 70 | 814.5 |
| 20260507144942 | 11 | 239 | 11.3 | 20.9 | 0.00 | 0.00 | 0.00 | 70 | 814.5 |
| 20260507144831 | 11 | 241 | 16.1 | 27.4 | 0.00 | 0.00 | 0.00 | 71 | 814.3 |
| 20260507144722 | 10 | 244 | 20.9 | 35.4 | 0.00 | 0.00 | 0.00 | 72 | 814.2 |
| 20260507144612 | 10 | 235 | 22.5 | 33.8 | 0.00 | 0.00 | 0.00 | 73 | 814.2 |
| 20260507144502 | 10 | 235 | 17.7 | 29.0 | 0.00 | 0.00 | 0.00 | 73 | 814.3 |
| 20260507144353 | 10 | 216 | 19.3 | 30.6 | 0.00 | 0.00 | 0.00 | 72 | 814.3 |
| 20260507144241 | 10 | 237 | 16.1 | 37.0 | 0.00 | 0.00 | 0.00 | 72 | 814.6 |
| 20260507144133 | 11 | 235 | 16.1 | 30.6 | 0.00 | 0.00 | 0.00 | 73 | 814.3 |
| 20260507144022 | 11 | 235 | 12.9 | 20.9 | 0.00 | 0.00 | 0.00 | 71 | 814.3 |
| 20260507143911 | 11 | 226 | 17.7 | 29.0 | 0.00 | 0.00 | 0.00 | 72 | 814.5 |
| 20260507143802 | 11 | 245 | 17.7 | 32.2 | 0.00 | 0.00 | 0.00 | 72 | 814.3 |
| 20260507143651 | 11 | 231 | 17.7 | 29.0 | 0.00 | 0.00 | 0.00 | 71 | 814.3 |
| 20260507143542 | 11 | 237 | 14.5 | 24.1 | 0.00 | 0.00 | 0.00 | 71 | 814.5 |
| 20260507143431 | 11 | 228 | 19.3 | 33.8 | 0.00 | 0.00 | 0.00 | 70 | 814.6 |
| 20260507143321 | 11 | 248 | 17.7 | 33.8 | 0.00 | 0.00 | 0.00 | 69 | 814.3 |
| 20260507143212 | 11 | 240 | 14.5 | 25.7 | 0.00 | 0.00 | 0.00 | 69 | 814.5 |
| 20260507143102 | 11 | 246 | 12.9 | 27.4 | 0.00 | 0.00 | 0.00 | 70 | 814.6 |
| 20260507142951 | 11 | 280 | 11.3 | 19.3 | 0.00 | 0.00 | 0.00 | 68 | 814.5 |
| 20260507142842 | 11 | 236 | 16.1 | 29.0 | 0.00 | 0.00 | 0.00 | 67 | 814.5 |
| 20260507142732 | 11 | 264 | 16.1 | 30.6 | 0.00 | 0.00 | 0.00 | 69 | 814.3 |
| 20260507142621 | 11 | 240 | 8.0 | 20.9 | 0.00 | 0.00 | 0.00 | 68 | 814.5 |
| 20260507142512 | 11 | 224 | 9.7 | 16.1 | 0.00 | 0.00 | 0.00 | 66 | 814.5 |
| 20260507142402 | 11 | 233 | 16.1 | 25.7 | 0.00 | 0.00 | 0.00 | 67 | 814.5 |
| 20260507142251 | 11 | 250 | 20.9 | 45.1 | 0.00 | 0.00 | 0.00 | 69 | 814.3 |
| 20260507142141 | 11 | 243 | 19.3 | 33.8 | 0.00 | 0.00 | 0.00 | 70 | 814.3 |
| 20260507142031 | 11 | 253 | 16.1 | 25.7 | 0.00 | 0.00 | 0.00 | 69 | 814.3 |
| 20260507141922 | 11 | 230 | 19.3 | 30.6 | 0.00 | 0.00 | 0.00 | 69 | 814.5 |
| 20260507141701 | 11 | 233 | 19.3 | 30.6 | 0.00 | 0.00 | 0.00 | 67 | 814.3 |
| 20260507141557 | 12 | 233 | 17.7 | 30.6 | 0.00 | 0.00 | 0.00 | 67 | 814.3 |
| 20260507141442 | 11 | 237 | 16.1 | 24.1 | 0.00 | 0.00 | 0.00 | 67 | 814.3 |
| 20260507141112 | 12 | 238 | 19.3 | 33.8 | 0.00 | 0.00 | 0.00 | 68 | 814.3 |
| 20260507140853 | 11 | 252 | 17.7 | 29.0 | 0.00 | 0.00 | 0.00 | 68 | 814.3 |
| 20260507140742 | 12 | 237 | 20.9 | 30.6 | 0.00 | 0.00 | 0.00 | 66 | 814.3 |
| 20260507140412 | 12 | 234 | 14.5 | 27.4 | 0.00 | 0.00 | 0.00 | 66 | 814.6 |
| 20260507140301 | 12 | 241 | 17.7 | 29.0 | 0.00 | 0.00 | 0.00 | 66 | 814.3 |
| 20260507140151 | 12 | 242 | 12.9 | 27.4 | 0.00 | 0.00 | 0.00 | 66 | 814.5 |
| 20260507135934 | 12 | 241 | 17.7 | 25.7 | 0.00 | 0.00 | 0.00 | 66 | 814.5 |
| 20260507135712 | 12 | 247 | 14.5 | 25.7 | 0.00 | 0.00 | 0.00 | 66 | 814.6 |
| 20260507135603 | 12 | 238 | 16.1 | 30.6 | 0.00 | 0.00 | 0.00 | 65 | 814.5 |
| 20260507135452 | 12 | 246 | 19.3 | 33.8 | 0.00 | 0.00 | 0.00 | 65 | 814.5 |
| 20260507135232 | 12 | 235 | 12.9 | 24.1 | 0.00 | 0.00 | 0.00 | 65 | 814.6 |
| 20260507135122 | 12 | 257 | 14.5 | 27.4 | 0.00 | 0.00 | 0.00 | 64 | 814.5 |
| 20260507135014 | 12 | 237 | 11.3 | 25.7 | 0.00 | 0.00 | 0.00 | 63 | 814.5 |
| 20260507134901 | 12 | 229 | 14.5 | 25.7 | 0.00 | 0.00 | 0.00 | 63 | 814.6 |
| 20260507134752 | 12 | 248 | 11.3 | 19.3 | 0.00 | 0.00 | 0.00 | 64 | 814.6 |
| 20260507134642 | 12 | 243 | 16.1 | 24.1 | 0.00 | 0.00 | 0.00 | 63 | 814.6 |
| 20260507134532 | 12 | 241 | 14.5 | 22.5 | 0.00 | 0.00 | 0.00 | 62 | 814.6 |
| 20260507134422 | 12 | 228 | 12.9 | 24.1 | 0.00 | 0.00 | 0.00 | 63 | 814.6 |
| 20260507134201 | 13 | 258 | 17.7 | 30.6 | 0.00 | 0.00 | 0.00 | 62 | 814.6 |
| 20260507134054 | 13 | 252 | 16.1 | 27.4 | 0.00 | 0.00 | 0.00 | 62 | 814.6 |
| 20260507133832 | 12 | 239 | 12.9 | 24.1 | 0.00 | 0.00 | 0.00 | 63 | 814.6 |
| 20260507133721 | 12 | 254 | 12.9 | 27.4 | 0.00 | 0.00 | 0.00 | 62 | 814.6 |
| 20260507133611 | 12 | 249 | 17.7 | 25.7 | 0.00 | 0.00 | 0.00 | 62 | 814.6 |
| 20260507133502 | 12 | 253 | 19.3 | 33.8 | 0.00 | 0.00 | 0.00 | 64 | 814.3 |
| 20260507133352 | 12 | 242 | 14.5 | 22.5 | 0.00 | 0.00 | 0.00 | 62 | 814.6 |
| 20260507133242 | 12 | 234 | 16.1 | 22.5 | 0.00 | 0.00 | 0.00 | 62 | 814.6 |
| 20260507133132 | 12 | 235 | 12.9 | 22.5 | 0.00 | 0.00 | 0.00 | 63 | 814.6 |
| 20260507133022 | 12 | 232 | 14.5 | 25.7 | 0.00 | 0.00 | 0.00 | 63 | 814.6 |
| 20260507132913 | 12 | 246 | 14.5 | 25.7 | 0.00 | 0.00 | 0.00 | 63 | 814.6 |
| 20260507132541 | 12 | 255 | 19.3 | 35.4 | 0.00 | 0.00 | 0.00 | 64 | 814.5 |
| 20260507132432 | 12 | 232 | 16.1 | 33.8 | 0.00 | 0.00 | 0.00 | 64 | 814.6 |
| 20260507132322 | 12 | 253 | 11.3 | 25.7 | 0.00 | 0.00 | 0.00 | 62 | 814.6 |
| 20260507132211 | 12 | 245 | 17.7 | 30.6 | 0.00 | 0.00 | 0.00 | 64 | 814.6 |
| 20260507132102 | 12 | 254 | 17.7 | 30.6 | 0.00 | 0.00 | 0.00 | 64 | 814.6 |
| 20260507131952 | 12 | 246 | 17.7 | 30.6 | 0.00 | 0.00 | 0.00 | 66 | 814.6 |
| 20260507131841 | 12 | 260 | 14.5 | 24.1 | 0.00 | 0.00 | 0.00 | 67 | 814.6 |
| 20260507131731 | 12 | 260 | 17.7 | 32.2 | 0.00 | 0.00 | 0.00 | 65 | 814.5 |
| 20260507131621 | 11 | 245 | 19.3 | 33.8 | 0.00 | 0.00 | 0.00 | 66 | 814.6 |
| 20260507131252 | 11 | 242 | 17.7 | 25.7 | 0.00 | 0.00 | 0.00 | 66 | 814.6 |
| 20260507131141 | 11 | 255 | 16.1 | 30.6 | 0.00 | 0.00 | 0.00 | 67 | 814.6 |
| 20260507131032 | 11 | 238 | 12.9 | 20.9 | 0.00 | 0.00 | 0.00 | 67 | 814.6 |
| 20260507130921 | 11 | 252 | 11.3 | 16.1 | 0.00 | 0.00 | 0.00 | 64 | 814.7 |
| 20260507130813 | 11 | 238 | 16.1 | 27.4 | 0.00 | 0.00 | 0.00 | 62 | 814.6 |
| 20260507130552 | 12 | 232 | 17.7 | 27.4 | 0.00 | 0.00 | 0.00 | 60 | 814.6 |
| 20260507130442 | 12 | 236 | 16.1 | 24.1 | 0.00 | 0.00 | 0.00 | 60 | 814.6 |
| 20260507130332 | 12 | 238 | 14.5 | 24.1 | 0.00 | 0.00 | 0.00 | 62 | 814.6 |
| 20260507130225 | 12 | 246 | 17.7 | 27.4 | 0.00 | 0.00 | 0.00 | 62 | 814.6 |
| 20260507130113 | 12 | 244 | 16.1 | 32.2 | 0.00 | 0.00 | 0.00 | 61 | 814.6 |
| 20260507130002 | 12 | 234 | 16.1 | 22.5 | 0.00 | 0.00 | 0.00 | 60 | 814.6 |
| 20260507125852 | 13 | 237 | 17.7 | 29.0 | 0.00 | 0.00 | 0.00 | 59 | 814.6 |
| 20260507125741 | 13 | 241 | 20.9 | 35.4 | 0.00 | 0.00 | 0.00 | 60 | 814.6 |
| 20260507125632 | 12 | 257 | 17.7 | 30.6 | 0.00 | 0.00 | 0.00 | 65 | 814.6 |
| 20260507125522 | 12 | 260 | 14.5 | 22.5 | 0.00 | 0.00 | 0.00 | 66 | 814.6 |
| 20260507125412 | 11 | 252 | 11.3 | 19.3 | 0.00 | 0.00 | 0.00 | 65 | 814.6 |
| 20260507125301 | 11 | 249 | 19.3 | 25.7 | 0.00 | 0.00 | 0.00 | 66 | 814.6 |
| 20260507125155 | 11 | 229 | 17.7 | 25.7 | 0.00 | 0.00 | 0.00 | 65 | 814.7 |
| 20260507125041 | 11 | 239 | 16.1 | 25.7 | 0.00 | 0.00 | 0.00 | 65 | 814.6 |
| 20260507124711 | 11 | 239 | 14.5 | 24.1 | 0.00 | 0.00 | 0.00 | 66 | 814.6 |
| 20260507124602 | 11 | 240 | 17.7 | 24.1 | 0.00 | 0.00 | 0.00 | 65 | 814.6 |
| 20260507124341 | 11 | 230 | 16.1 | 25.7 | 0.00 | 0.00 | 0.00 | 64 | 814.6 |
| 20260507124233 | 11 | 244 | 16.1 | 24.1 | 0.00 | 0.00 | 0.00 | 64 | 814.7 |
| 20260507124121 | 11 | 242 | 14.5 | 24.1 | 0.00 | 0.00 | 0.00 | 64 | 814.7 |
| 20260507124012 | 11 | 241 | 14.5 | 25.7 | 0.00 | 0.00 | 0.00 | 64 | 814.7 |
| 20260507123902 | 11 | 234 | 11.3 | 19.3 | 0.00 | 0.00 | 0.00 | 64 | 814.7 |
| 20260507123753 | 11 | 235 | 12.9 | 22.5 | 0.00 | 0.00 | 0.00 | 64 | 814.7 |
| 20260507123642 | 11 | 236 | 11.3 | 22.5 | 0.00 | 0.00 | 0.00 | 64 | 814.7 |
| 20260507123532 | 11 | 241 | 11.3 | 24.1 | 0.00 | 0.00 | 0.00 | 64 | 814.7 |
| 20260507123422 | 11 | 244 | 11.3 | 24.1 | 0.00 | 0.00 | 0.00 | 62 | 814.7 |
| 20260507123312 | 12 | 218 | 17.7 | 29.0 | 0.00 | 0.00 | 0.00 | 60 | 814.7 |
| 20260507123052 | 12 | 242 | 16.1 | 29.0 | 0.00 | 0.00 | 0.00 | 61 | 814.6 |
| 20260507122944 | 12 | 226 | 12.9 | 24.1 | 0.00 | 0.00 | 0.00 | 61 | 814.7 |
| 20260507122831 | 12 | 227 | 11.3 | 19.3 | 0.00 | 0.00 | 0.00 | 63 | 814.9 |
| 20260507122611 | 12 | 236 | 14.5 | 27.4 | 0.00 | 0.00 | 0.00 | 62 | 814.7 |
| 20260507122352 | 12 | 244 | 12.9 | 24.1 | 0.00 | 0.00 | 0.00 | 62 | 814.7 |
| 20260507122241 | 12 | 223 | 16.1 | 24.1 | 0.00 | 0.00 | 0.00 | 61 | 814.9 |
| 20260507122131 | 12 | 241 | 12.9 | 24.1 | 0.00 | 0.00 | 0.00 | 59 | 815.0 |
| 20260507122022 | 12 | 231 | 14.5 | 25.7 | 0.00 | 0.00 | 0.00 | 59 | 814.9 |
| 20260507121911 | 12 | 235 | 12.9 | 24.1 | 0.00 | 0.00 | 0.00 | 58 | 814.9 |
| 20260507121801 | 13 | 237 | 16.1 | 25.7 | 0.00 | 0.00 | 0.00 | 57 | 814.9 |
| 20260507121541 | 13 | 244 | 12.9 | 25.7 | 0.00 | 0.00 | 0.00 | 56 | 814.9 |
| 20260507121431 | 13 | 228 | 8.0 | 16.1 | 0.00 | 0.00 | 0.00 | 56 | 814.9 |
| 20260507121211 | 13 | 241 | 12.9 | 32.2 | 0.00 | 0.00 | 0.00 | 57 | 814.9 |
| 20260507121101 | 13 | 230 | 11.3 | 22.5 | 0.00 | 0.00 | 0.00 | 57 | 814.9 |
| 20260507120952 | 13 | 232 | 12.9 | 24.1 | 0.00 | 0.00 | 0.00 | 58 | 814.9 |
| 20260507120841 | 13 | 243 | 14.5 | 24.1 | 0.00 | 0.00 | 0.00 | 59 | 814.9 |
| 20260507120732 | 13 | 260 | 14.5 | 30.6 | 0.00 | 0.00 | 0.00 | 55 | 814.9 |
| 20260507120623 | 13 | 228 | 14.5 | 20.9 | 0.00 | 0.00 | 0.00 | 57 | 814.9 |
| 20260507120401 | 13 | 249 | 14.5 | 33.8 | 0.00 | 0.00 | 0.00 | 55 | 814.9 |
| 20260507120252 | 13 | 253 | 11.3 | 22.5 | 0.00 | 0.00 | 0.00 | 56 | 814.9 |
| 20260507120143 | 13 | 227 | 12.9 | 20.9 | 0.00 | 0.00 | 0.00 | 56 | 815.0 |
| 20260507120031 | 13 | 235 | 12.9 | 22.5 | 0.00 | 0.00 | 0.00 | 57 | 815.0 |
| 20260507115812 | 13 | 232 | 12.9 | 24.1 | 0.00 | 0.00 | 0.00 | 58 | 814.7 |
| 20260507115701 | 13 | 269 | 12.9 | 27.4 | 0.00 | 0.00 | 0.00 | 59 | 815.0 |
| 20260507115551 | 13 | 203 | 9.7 | 17.7 | 0.00 | 0.00 | 0.00 | 57 | 815.0 |
| 20260507115442 | 12 | 236 | 11.3 | 22.5 | 0.00 | 0.00 | 0.00 | 61 | 815.0 |
| 20260507115331 | 12 | 238 | 11.3 | 16.1 | 0.00 | 0.00 | 0.00 | 60 | 815.0 |
| 20260507115221 | 12 | 244 | 16.1 | 25.7 | 0.00 | 0.00 | 0.00 | 60 | 815.0 |
| 20260507115112 | 12 | 262 | 4.8 | 12.9 | 0.00 | 0.00 | 0.00 | 59 | 815.0 |
| 20260507114852 | 13 | 214 | 12.9 | 22.5 | 0.00 | 0.00 | 0.00 | 55 | 815.0 |
| 20260507114742 | 13 | 236 | 12.9 | 25.7 | 0.00 | 0.00 | 0.00 | 56 | 815.0 |
| 20260507114522 | 13 | 248 | 11.3 | 24.1 | 0.00 | 0.00 | 0.00 | 56 | 815.1 |
| 20260507114301 | 13 | 230 | 12.9 | 19.3 | 0.00 | 0.00 | 0.00 | 54 | 815.0 |
| 20260507114042 | 14 | 237 | 11.3 | 20.9 | 0.00 | 0.00 | 0.00 | 55 | 815.0 |
| 20260507113931 | 13 | 244 | 8.0 | 22.5 | 0.00 | 0.00 | 0.00 | 57 | 815.0 |
| 20260507113821 | 13 | 233 | 9.7 | 19.3 | 0.00 | 0.00 | 0.00 | 57 | 815.0 |
| 20260507113451 | 13 | 247 | 17.7 | 30.6 | 0.00 | 0.00 | 0.00 | 57 | 815.0 |
| 20260507113341 | 13 | 230 | 17.7 | 30.6 | 0.00 | 0.00 | 0.00 | 57 | 815.0 |
| 20260507113122 | 13 | 241 | 11.3 | 20.9 | 0.00 | 0.00 | 0.00 | 56 | 815.0 |
| 20260507113012 | 13 | 244 | 12.9 | 29.0 | 0.00 | 0.00 | 0.00 | 56 | 815.0 |
| 20260507112752 | 13 | 243 | 11.3 | 29.0 | 0.00 | 0.00 | 0.00 | 56 | 815.0 |
| 20260507112641 | 14 | 258 | 9.7 | 17.7 | 0.00 | 0.00 | 0.00 | 53 | 814.9 |
| 20260507112533 | 14 | 249 | 9.7 | 16.1 | 0.00 | 0.00 | 0.00 | 54 | 815.0 |
| 20260507112421 | 14 | 237 | 12.9 | 27.4 | 0.00 | 0.00 | 0.00 | 54 | 815.0 |
| 20260507112311 | 13 | 240 | 9.7 | 19.3 | 0.00 | 0.00 | 0.00 | 55 | 815.0 |
| 20260507112202 | 13 | 253 | 9.7 | 20.9 | 0.00 | 0.00 | 0.00 | 56 | 815.0 |
| 20260507112052 | 13 | 235 | 9.7 | 20.9 | 0.00 | 0.00 | 0.00 | 55 | 814.9 |
| 20260507111941 | 13 | 270 | 17.7 | 32.2 | 0.00 | 0.00 | 0.00 | 55 | 814.9 |
| 20260507111723 | 13 | 243 | 12.9 | 27.4 | 0.00 | 0.00 | 0.00 | 54 | 815.0 |
| 20260507111502 | 13 | 216 | 6.4 | 22.5 | 0.00 | 0.00 | 0.00 | 55 | 815.0 |
| 20260507111351 | 13 | 227 | 11.3 | 22.5 | 0.00 | 0.00 | 0.00 | 53 | 815.0 |
| 20260507111241 | 13 | 254 | 14.5 | 25.7 | 0.00 | 0.00 | 0.00 | 54 | 815.0 |
| 20260507111131 | 13 | 235 | 16.1 | 25.7 | 0.00 | 0.00 | 0.00 | 53 | 815.0 |
| 20260507111022 | 13 | 236 | 16.1 | 27.4 | 0.00 | 0.00 | 0.00 | 54 | 815.0 |
| 20260507110911 | 13 | 245 | 12.9 | 25.7 | 0.00 | 0.00 | 0.00 | 53 | 815.0 |
| 20260507110801 | 13 | 247 | 12.9 | 25.7 | 0.00 | 0.00 | 0.00 | 53 | 814.9 |
| 20260507110652 | 13 | 234 | 12.9 | 25.7 | 0.00 | 0.00 | 0.00 | 54 | 815.0 |
| 20260507110541 | 13 | 227 | 12.9 | 24.1 | 0.00 | 0.00 | 0.00 | 53 | 815.0 |
| 20260507110431 | 13 | 251 | 12.9 | 25.7 | 0.00 | 0.00 | 0.00 | 52 | 815.0 |
| 20260507110322 | 13 | 250 | 12.9 | 20.9 | 0.00 | 0.00 | 0.00 | 53 | 815.0 |
| 20260507110212 | 13 | 240 | 9.7 | 16.1 | 0.00 | 0.00 | 0.00 | 53 | 815.0 |
| 20260507105953 | 13 | 232 | 11.3 | 20.9 | 0.00 | 0.00 | 0.00 | 51 | 815.0 |
| 20260507105842 | 13 | 226 | 12.9 | 25.7 | 0.00 | 0.00 | 0.00 | 52 | 815.0 |
| 20260507105731 | 13 | 236 | 8.0 | 16.1 | 0.00 | 0.00 | 0.00 | 50 | 815.0 |
| 20260507105621 | 13 | 215 | 11.3 | 19.3 | 0.00 | 0.00 | 0.00 | 51 | 815.0 |
| 20260507105251 | 13 | 238 | 12.9 | 22.5 | 0.00 | 0.00 | 0.00 | 50 | 815.0 |
| 20260507105141 | 14 | 241 | 12.9 | 22.5 | 0.00 | 0.00 | 0.00 | 50 | 814.9 |
| 20260507105035 | 14 | 233 | 11.3 | 25.7 | 0.00 | 0.00 | 0.00 | 50 | 815.0 |
| 20260507104812 | 13 | 243 | 9.7 | 22.5 | 0.00 | 0.00 | 0.00 | 52 | 815.0 |
| 20260507104701 | 13 | 253 | 12.9 | 24.1 | 0.00 | 0.00 | 0.00 | 48 | 815.0 |
| 20260507104552 | 13 | 239 | 12.9 | 19.3 | 0.00 | 0.00 | 0.00 | 49 | 815.0 |
| 20260507104443 | 13 | 236 | 11.3 | 20.9 | 0.00 | 0.00 | 0.00 | 49 | 815.0 |
| 20260507104331 | 13 | 226 | 12.9 | 20.9 | 0.00 | 0.00 | 0.00 | 51 | 815.0 |
| 20260507104221 | 13 | 262 | 6.4 | 16.1 | 0.00 | 0.00 | 0.00 | 48 | 815.0 |
| 20260507104001 | 13 | 288 | 8.0 | 19.3 | 0.00 | 0.00 | 0.00 | 49 | 815.0 |
| 20260507103853 | 13 | 234 | 9.7 | 17.7 | 0.00 | 0.00 | 0.00 | 47 | 815.0 |
| 20260507103741 | 13 | 228 | 6.4 | 14.5 | 0.00 | 0.00 | 0.00 | 49 | 815.1 |
| 20260507103522 | 12 | 242 | 9.7 | 20.9 | 0.00 | 0.00 | 0.00 | 51 | 815.0 |
| 20260507103412 | 12 | 227 | 8.0 | 20.9 | 0.00 | 0.00 | 0.00 | 49 | 815.0 |
| 20260507103301 | 12 | 231 | 12.9 | 22.5 | 0.00 | 0.00 | 0.00 | 50 | 815.1 |
| 20260507103154 | 12 | 225 | 16.1 | 24.1 | 0.00 | 0.00 | 0.00 | 48 | 815.0 |
| 20260507103041 | 13 | 268 | 16.1 | 37.0 | 0.00 | 0.00 | 0.00 | 49 | 815.0 |
| 20260507102931 | 13 | 245 | 14.5 | 24.1 | 0.00 | 0.00 | 0.00 | 48 | 815.0 |
| 20260507102822 | 13 | 235 | 12.9 | 24.1 | 0.00 | 0.00 | 0.00 | 48 | 815.0 |
| 20260507102601 | 13 | 247 | 11.3 | 22.5 | 0.00 | 0.00 | 0.00 | 48 | 815.0 |
| 20260507102456 | 13 | 252 | 6.4 | 19.3 | 0.00 | 0.00 | 0.00 | 48 | 815.0 |
| 20260507102342 | 13 | 286 | 9.7 | 22.5 | 0.00 | 0.00 | 0.00 | 48 | 815.0 |
| 20260507102232 | 13 | 238 | 9.7 | 24.1 | 0.00 | 0.00 | 0.00 | 46 | 815.0 |
| 20260507102011 | 12 | 228 | 12.9 | 24.1 | 0.00 | 0.00 | 0.00 | 50 | 815.0 |
| 20260507101903 | 12 | 249 | 8.0 | 22.5 | 0.00 | 0.00 | 0.00 | 50 | 815.0 |
| 20260507101752 | 12 | 266 | 8.0 | 14.5 | 0.00 | 0.00 | 0.00 | 49 | 815.1 |
| 20260507101641 | 12 | 200 | 8.0 | 12.9 | 0.00 | 0.00 | 0.00 | 50 | 815.1 |
| 20260507101533 | 12 | 226 | 11.3 | 19.3 | 0.00 | 0.00 | 0.00 | 49 | 815.1 |
| 20260507101423 | 12 | 224 | 14.5 | 22.5 | 0.00 | 0.00 | 0.00 | 50 | 815.1 |
| 20260507101312 | 12 | 296 | 6.4 | 20.9 | 0.00 | 0.00 | 0.00 | 50 | 815.1 |
| 20260507101201 | 12 | 278 | 4.8 | 12.9 | 0.00 | 0.00 | 0.00 | 46 | 815.3 |
| 20260507101054 | 12 | 201 | 9.7 | 16.1 | 0.00 | 0.00 | 0.00 | 46 | 815.3 |
| 20260507100942 | 13 | 254 | 11.3 | 24.1 | 0.00 | 0.00 | 0.00 | 48 | 815.3 |
| 20260507100832 | 13 | 283 | 9.7 | 20.9 | 0.00 | 0.00 | 0.00 | 48 | 815.0 |
| 20260507100722 | 13 | 246 | 8.0 | 17.7 | 0.00 | 0.00 | 0.00 | 46 | 815.1 |
| 20260507100614 | 13 | 272 | 14.5 | 24.1 | 0.00 | 0.00 | 0.00 | 46 | 815.1 |
| 20260507100501 | 13 | 197 | 8.0 | 14.5 | 0.00 | 0.00 | 0.00 | 46 | 815.1 |
| 20260507100353 | 13 | 236 | 8.0 | 12.9 | 0.00 | 0.00 | 0.00 | 46 | 815.1 |
| 20260507100241 | 13 | 233 | 9.7 | 16.1 | 0.00 | 0.00 | 0.00 | 46 | 815.1 |
| 20260507100132 | 13 | 235 | 6.4 | 14.5 | 0.00 | 0.00 | 0.00 | 44 | 815.1 |
| 20260507100023 | 13 | 262 | 12.9 | 20.9 | 0.00 | 0.00 | 0.00 | 46 | 815.0 |
| 20260507095801 | 13 | 254 | 12.9 | 19.3 | 0.00 | 0.00 | 0.00 | 45 | 815.1 |
| 20260507095431 | 13 | 258 | 12.9 | 20.9 | 0.00 | 0.00 | 0.00 | 45 | 815.3 |
| 20260507095321 | 13 | 206 | 8.0 | 19.3 | 0.00 | 0.00 | 0.00 | 45 | 815.0 |
| 20260507095212 | 13 | 272 | 11.3 | 20.9 | 0.00 | 0.00 | 0.00 | 45 | 815.1 |
| 20260507095101 | 13 | 269 | 9.7 | 19.3 | 0.00 | 0.00 | 0.00 | 44 | 815.1 |
| 20260507094951 | 13 | 207 | 9.7 | 19.3 | 0.00 | 0.00 | 0.00 | 41 | 815.3 |
| 20260507094842 | 13 | 233 | 9.7 | 17.7 | 0.00 | 0.00 | 0.00 | 40 | 815.1 |
| 20260507094511 | 13 | 235 | 14.5 | 22.5 | 0.00 | 0.00 | 0.00 | 42 | 815.1 |
| 20260507094252 | 13 | 272 | 9.7 | 19.3 | 0.00 | 0.00 | 0.00 | 46 | 815.1 |
| 20260507094142 | 13 | 250 | 4.8 | 12.9 | 0.00 | 0.00 | 0.00 | 46 | 815.1 |
| 20260507094035 | 12 | 268 | 4.8 | 11.3 | 0.00 | 0.00 | 0.00 | 43 | 815.1 |
| 20260507093924 | 13 | 185 | 6.4 | 12.9 | 0.00 | 0.00 | 0.00 | 42 | 815.3 |
| 20260507093812 | 13 | 214 | 6.4 | 12.9 | 0.00 | 0.00 | 0.00 | 42 | 815.3 |
| 20260507093701 | 13 | 229 | 8.0 | 19.3 | 0.00 | 0.00 | 0.00 | 44 | 815.3 |
| 20260507093331 | 13 | 257 | 14.5 | 19.3 | 0.00 | 0.00 | 0.00 | 42 | 815.1 |
| 20260507093221 | 13 | 254 | 11.3 | 24.1 | 0.00 | 0.00 | 0.00 | 42 | 815.1 |
| 20260507093111 | 13 | 242 | 8.0 | 14.5 | 0.00 | 0.00 | 0.00 | 42 | 815.1 |
| 20260507093002 | 13 | 264 | 8.0 | 19.3 | 0.00 | 0.00 | 0.00 | 43 | 815.3 |
| 20260507092852 | 13 | 266 | 8.0 | 16.1 | 0.00 | 0.00 | 0.00 | 43 | 815.1 |
| 20260507092741 | 13 | 253 | 11.3 | 19.3 | 0.00 | 0.00 | 0.00 | 41 | 815.1 |
| 20260507092632 | 13 | 247 | 11.3 | 17.7 | 0.00 | 0.00 | 0.00 | 42 | 815.1 |
| 20260507092521 | 13 | 264 | 11.3 | 19.3 | 0.00 | 0.00 | 0.00 | 42 | 815.1 |
| 20260507092411 | 13 | 252 | 14.5 | 29.0 | 0.00 | 0.00 | 0.00 | 45 | 815.0 |
| 20260507092301 | 13 | 259 | 9.7 | 16.1 | 0.00 | 0.00 | 0.00 | 45 | 815.1 |
| 20260507092151 | 13 | 253 | 9.7 | 17.7 | 0.00 | 0.00 | 0.00 | 45 | 815.1 |
| 20260507092041 | 13 | 227 | 11.3 | 24.1 | 0.00 | 0.00 | 0.00 | 44 | 815.3 |
| 20260507091932 | 13 | 245 | 11.3 | 19.3 | 0.00 | 0.00 | 0.00 | 46 | 815.1 |
| 20260507091821 | 13 | 255 | 11.3 | 20.9 | 0.00 | 0.00 | 0.00 | 48 | 815.1 |
| 20260507091711 | 13 | 275 | 11.3 | 19.3 | 0.00 | 0.00 | 0.00 | 47 | 815.3 |
| 20260507091604 | 13 | 241 | 6.4 | 12.9 | 0.00 | 0.00 | 0.00 | 42 | 815.3 |
| 20260507091451 | 13 | 222 | 6.4 | 11.3 | 0.00 | 0.00 | 0.00 | 45 | 815.3 |
| 20260507091341 | 13 | 234 | 6.4 | 16.1 | 0.00 | 0.00 | 0.00 | 45 | 815.3 |
| 20260507091232 | 13 | 254 | 9.7 | 17.7 | 0.00 | 0.00 | 0.00 | 46 | 815.3 |
| 20260507091122 | 13 | 278 | 8.0 | 17.7 | 0.00 | 0.00 | 0.00 | 46 | 815.1 |
| 20260507091016 | 13 | 267 | 8.0 | 16.1 | 0.00 | 0.00 | 0.00 | 44 | 815.1 |
| 20260507090642 | 13 | 264 | 8.0 | 17.7 | 0.00 | 0.00 | 0.00 | 46 | 815.1 |
| 20260507090531 | 13 | 260 | 6.4 | 16.1 | 0.00 | 0.00 | 0.00 | 48 | 815.1 |
| 20260507090421 | 13 | 78 | 6.4 | 12.9 | 0.00 | 0.00 | 0.00 | 47 | 815.1 |
| 20260507090312 | 13 | 243 | 9.7 | 17.7 | 0.00 | 0.00 | 0.00 | 47 | 815.1 |
| 20260507090202 | 13 | 275 | 4.8 | 12.9 | 0.00 | 0.00 | 0.00 | 48 | 815.1 |
| 20260507090051 | 13 | 262 | 9.7 | 19.3 | 0.00 | 0.00 | 0.00 | 47 | 815.1 |
| 20260507085941 | 13 | 237 | 8.0 | 12.9 | 0.00 | 0.00 | 0.00 | 50 | 815.1 |
| 20260507085834 | 12 | 232 | 8.0 | 14.5 | 0.00 | 0.00 | 0.00 | 50 | 815.3 |
| 20260507085501 | 12 | 271 | 12.9 | 22.5 | 0.00 | 0.00 | 0.00 | 49 | 815.1 |
| 20260507085355 | 13 | 258 | 9.7 | 17.7 | 0.00 | 0.00 | 0.00 | 50 | 815.1 |
| 20260507085242 | 13 | 258 | 9.7 | 19.3 | 0.00 | 0.00 | 0.00 | 47 | 815.1 |
| 20260507085131 | 13 | 210 | 9.7 | 16.1 | 0.00 | 0.00 | 0.00 | 50 | 815.3 |
| 20260507085022 | 13 | 281 | 3.2 | 9.7 | 0.00 | 0.00 | 0.00 | 48 | 815.3 |
| 20260507084801 | 13 | 234 | 8.0 | 12.9 | 0.00 | 0.00 | 0.00 | 51 | 815.3 |
| 20260507084651 | 13 | 232 | 8.0 | 17.7 | 0.00 | 0.00 | 0.00 | 52 | 815.1 |
| 20260507084431 | 13 | 300 | 6.4 | 16.1 | 0.00 | 0.00 | 0.00 | 51 | 815.1 |
| 20260507084211 | 12 | 244 | 6.4 | 12.9 | 0.00 | 0.00 | 0.00 | 52 | 815.3 |
| 20260507083952 | 12 | 214 | 6.4 | 12.9 | 0.00 | 0.00 | 0.00 | 53 | 815.3 |
| 20260507083841 | 12 | 267 | 6.4 | 14.5 | 0.00 | 0.00 | 0.00 | 54 | 815.1 |
| 20260507083731 | 12 | 243 | 4.8 | 9.7 | 0.00 | 0.00 | 0.00 | 55 | 815.1 |
| 20260507083621 | 12 | 243 | 4.8 | 11.3 | 0.00 | 0.00 | 0.00 | 56 | 815.1 |
| 20260507083511 | 12 | 279 | 8.0 | 12.9 | 0.00 | 0.00 | 0.00 | 56 | 815.1 |
| 20260507083401 | 12 | 238 | 6.4 | 16.1 | 0.00 | 0.00 | 0.00 | 55 | 815.1 |
| 20260507083031 | 13 | 227 | 9.7 | 19.3 | 0.00 | 0.00 | 0.00 | 54 | 815.1 |
| 20260507082921 | 13 | 258 | 8.0 | 17.7 | 0.00 | 0.00 | 0.00 | 55 | 815.1 |
| 20260507082812 | 12 | 257 | 11.3 | 17.7 | 0.00 | 0.00 | 0.00 | 55 | 815.0 |
| 20260507082701 | 12 | 252 | 8.0 | 16.1 | 0.00 | 0.00 | 0.00 | 55 | 815.1 |
| 20260507082551 | 12 | 264 | 8.0 | 12.9 | 0.00 | 0.00 | 0.00 | 55 | 815.1 |
| 20260507082331 | 12 | 249 | 8.0 | 16.1 | 0.00 | 0.00 | 0.00 | 52 | 815.0 |
| 20260507082221 | 12 | 231 | 9.7 | 16.1 | 0.00 | 0.00 | 0.00 | 55 | 815.1 |
| 20260507082116 | 12 | 239 | 9.7 | 16.1 | 0.00 | 0.00 | 0.00 | 53 | 815.0 |
| 20260507082001 | 12 | 219 | 9.7 | 14.5 | 0.00 | 0.00 | 0.00 | 54 | 815.0 |
| 20260507081851 | 12 | 274 | 8.0 | 17.7 | 0.00 | 0.00 | 0.00 | 54 | 815.1 |
| 20260507081741 | 12 | 256 | 9.7 | 14.5 | 0.00 | 0.00 | 0.00 | 55 | 815.0 |
| 20260507081632 | 12 | 232 | 9.7 | 16.1 | 0.00 | 0.00 | 0.00 | 57 | 815.1 |
| 20260507081523 | 12 | 242 | 6.4 | 12.9 | 0.00 | 0.00 | 0.00 | 52 | 815.1 |
| 20260507081301 | 12 | 227 | 3.2 | 9.7 | 0.00 | 0.00 | 0.00 | 52 | 815.1 |
| 20260507081153 | 12 | 207 | 6.4 | 9.7 | 0.00 | 0.00 | 0.00 | 56 | 815.1 |
| 20260507081042 | 11 | 201 | 8.0 | 12.9 | 0.00 | 0.00 | 0.00 | 57 | 815.1 |
| 20260507080932 | 12 | 231 | 6.4 | 11.3 | 0.00 | 0.00 | 0.00 | 55 | 815.0 |
| 20260507080821 | 12 | 232 | 8.0 | 12.9 | 0.00 | 0.00 | 0.00 | 56 | 815.1 |
| 20260507080712 | 12 | 232 | 9.7 | 14.5 | 0.00 | 0.00 | 0.00 | 56 | 815.0 |
| 20260507080602 | 12 | 266 | 8.0 | 16.1 | 0.00 | 0.00 | 0.00 | 55 | 815.0 |
| 20260507080452 | 12 | 266 | 9.7 | 14.5 | 0.00 | 0.00 | 0.00 | 54 | 815.0 |
| 20260507080121 | 12 | 260 | 9.7 | 16.1 | 0.00 | 0.00 | 0.00 | 50 | 815.0 |
| 20260507075901 | 12 | 244 | 8.0 | 12.9 | 0.00 | 0.00 | 0.00 | 57 | 815.0 |
| 20260507075531 | 12 | 236 | 4.8 | 9.7 | 0.00 | 0.00 | 0.00 | 59 | 815.0 |
| 20260507075311 | 12 | 241 | 4.8 | 9.7 | 0.00 | 0.00 | 0.00 | 60 | 815.1 |
| 20260507075201 | 12 | 234 | 6.4 | 11.3 | 0.00 | 0.00 | 0.00 | 58 | 815.0 |
| 20260507075052 | 12 | 231 | 4.8 | 9.7 | 0.00 | 0.00 | 0.00 | 58 | 815.0 |
| 20260507074941 | 12 | 259 | 4.8 | 11.3 | 0.00 | 0.00 | 0.00 | 56 | 815.0 |
| 20260507074722 | 12 | 231 | 4.8 | 9.7 | 0.00 | 0.00 | 0.00 | 55 | 815.0 |
| 20260507074612 | 12 | 229 | 4.8 | 8.0 | 0.00 | 0.00 | 0.00 | 58 | 815.0 |
| 20260507074501 | 11 | 240 | 8.0 | 11.3 | 0.00 | 0.00 | 0.00 | 57 | 815.0 |
| 20260507074356 | 12 | 266 | 8.0 | 11.3 | 0.00 | 0.00 | 0.00 | 56 | 815.0 |
| 20260507074244 | 12 | 240 | 4.8 | 8.0 | 0.00 | 0.00 | 0.00 | 56 | 815.0 |
| 20260507074132 | 12 | 255 | 4.8 | 6.4 | 0.00 | 0.00 | 0.00 | 56 | 815.0 |
| 20260507074021 | 12 | 271 | 6.4 | 9.7 | 0.00 | 0.00 | 0.00 | 56 | 815.0 |
| 20260507073911 | 12 | 270 | 4.8 | 9.7 | 0.00 | 0.00 | 0.00 | 57 | 815.0 |
| 20260507073801 | 12 | 224 | 4.8 | 6.4 | 0.00 | 0.00 | 0.00 | 58 | 815.0 |
| 20260507073651 | 11 | 96 | 1.6 | 3.2 | 0.00 | 0.00 | 0.00 | 58 | 815.0 |
| 20260507073541 | 11 | 178 | 1.6 | 4.8 | 0.00 | 0.00 | 0.00 | 58 | 815.0 |
| 20260507073433 | 11 | 267 | 4.8 | 9.7 | 0.00 | 0.00 | 0.00 | 58 | 815.0 |
| 20260507073321 | 11 | 253 | 6.4 | 9.7 | 0.00 | 0.00 | 0.00 | 59 | 815.0 |
| 20260507073215 | 11 | 266 | 4.8 | 9.7 | 0.00 | 0.00 | 0.00 | 58 | 815.0 |
| 20260507073102 | 11 | 279 | 4.8 | 8.0 | 0.00 | 0.00 | 0.00 | 58 | 815.0 |
| 20260507072951 | 11 | 267 | 3.2 | 4.8 | 0.00 | 0.00 | 0.00 | 57 | 815.0 |
| 20260507072841 | 11 | 277 | 3.2 | 6.4 | 0.00 | 0.00 | 0.00 | 57 | 815.0 |
| 20260507072621 | 11 | 261 | 4.8 | 8.0 | 0.00 | 0.00 | 0.00 | 56 | 815.0 |
| 20260507072512 | 11 | 251 | 3.2 | 8.0 | 0.00 | 0.00 | 0.00 | 57 | 815.0 |
| 20260507072402 | 11 | 237 | 4.8 | 8.0 | 0.00 | 0.00 | 0.00 | 56 | 815.0 |
| 20260507072252 | 11 | 237 | 6.4 | 11.3 | 0.00 | 0.00 | 0.00 | 55 | 815.0 |
| 20260507072141 | 11 | 227 | 4.8 | 8.0 | 0.00 | 0.00 | 0.00 | 55 | 815.0 |
| 20260507072031 | 11 | 252 | 4.8 | 8.0 | 0.00 | 0.00 | 0.00 | 53 | 814.9 |
| 20260507071921 | 11 | 265 | 4.8 | 8.0 | 0.00 | 0.00 | 0.00 | 52 | 815.0 |
| 20260507071701 | 11 | 279 | 3.2 | 6.4 | 0.00 | 0.00 | 0.00 | 53 | 815.0 |
| 20260507071331 | 11 | 261 | 4.8 | 8.0 | 0.00 | 0.00 | 0.00 | 47 | 815.0 |
| 20260507071111 | 11 | 295 | 4.8 | 8.0 | 0.00 | 0.00 | 0.00 | 47 | 814.9 |
| 20260507071001 | 12 | 311 | 4.8 | 6.4 | 0.00 | 0.00 | 0.00 | 45 | 814.9 |
| 20260507070853 | 12 | 313 | 4.8 | 9.7 | 0.00 | 0.00 | 0.00 | 45 | 814.9 |
| 20260507070742 | 12 | 296 | 3.2 | 6.4 | 0.00 | 0.00 | 0.00 | 45 | 815.0 |
| 20260507070631 | 12 | 263 | 4.8 | 6.4 | 0.00 | 0.00 | 0.00 | 45 | 814.9 |
| 20260507070412 | 12 | 290 | 3.2 | 9.7 | 0.00 | 0.00 | 0.00 | 44 | 814.9 |
| 20260507070301 | 12 | 349 | 3.2 | 9.7 | 0.00 | 0.00 | 0.00 | 43 | 814.9 |
| 20260507070151 | 12 | 67 | 6.4 | 16.1 | 0.00 | 0.00 | 0.00 | 44 | 814.7 |
| 20260507070041 | 12 | 3 | 4.8 | 11.3 | 0.00 | 0.00 | 0.00 | 42 | 814.7 |
| 20260507065931 | 12 | 152 | 1.6 | 4.8 | 0.00 | 0.00 | 0.00 | 43 | 814.7 |
| 20260507065711 | 12 | 346 | 1.6 | 3.2 | 0.00 | 0.00 | 0.00 | 40 | 814.9 |
| 20260507065601 | 12 | 323 | 3.2 | 4.8 | 0.00 | 0.00 | 0.00 | 41 | 814.7 |
| 20260507065455 | 12 | 285 | 3.2 | 6.4 | 0.00 | 0.00 | 0.00 | 42 | 814.7 |
| 20260507065341 | 12 | 284 | 4.8 | 9.7 | 0.00 | 0.00 | 0.00 | 42 | 814.7 |
| 20260507065231 | 12 | 27 | 3.2 | 9.7 | 0.00 | 0.00 | 0.00 | 41 | 814.9 |
| 20260507065011 | 12 | 223 | 3.2 | 8.0 | 0.00 | 0.00 | 0.00 | 40 | 814.7 |
| 20260507064901 | 12 | 266 | 3.2 | 6.4 | 0.00 | 0.00 | 0.00 | 38 | 814.7 |
| 20260507064751 | 12 | 243 | 3.2 | 6.4 | 0.00 | 0.00 | 0.00 | 38 | 814.7 |
| 20260507064641 | 12 | 208 | 3.2 | 8.0 | 0.00 | 0.00 | 0.00 | 40 | 814.7 |
| 20260507064531 | 12 | 293 | 4.8 | 9.7 | 0.00 | 0.00 | 0.00 | 38 | 814.7 |
| 20260507064311 | 12 | 266 | 4.8 | 8.0 | 0.00 | 0.00 | 0.00 | 38 | 814.7 |
| 20260507064201 | 12 | 214 | 4.8 | 16.1 | 0.00 | 0.00 | 0.00 | 40 | 814.7 |
| 20260507064051 | 12 | 122 | 1.6 | 4.8 | 0.00 | 0.00 | 0.00 | 36 | 814.7 |
| 20260507063941 | 12 | 263 | 1.6 | 6.4 | 0.00 | 0.00 | 0.00 | 36 | 814.7 |
| 20260507063831 | 12 | 13 | 1.6 | 4.8 | 0.00 | 0.00 | 0.00 | 34 | 814.7 |
| 20260507063611 | 12 | 270 | 3.2 | 4.8 | 0.00 | 0.00 | 0.00 | 36 | 814.7 |
| 20260507063501 | 12 | 22 | 1.6 | 6.4 | 0.00 | 0.00 | 0.00 | 39 | 814.7 |
| 20260507063351 | 12 | 126 | 1.6 | 6.4 | 0.00 | 0.00 | 0.00 | 39 | 814.7 |
| 20260507063241 | 12 | 178 | 1.6 | 6.4 | 0.00 | 0.00 | 0.00 | 38 | 814.7 |
| 20260507063131 | 12 | 161 | 6.4 | 8.0 | 0.00 | 0.00 | 0.00 | 41 | 814.7 |
| 20260507063021 | 12 | 83 | 3.2 | 6.4 | 0.00 | 0.00 | 0.00 | 40 | 814.7 |
| 20260507062911 | 12 | 82 | 4.8 | 8.0 | 0.00 | 0.00 | 0.00 | 43 | 814.7 |
| 20260507062801 | 11 | 155 | 3.2 | 6.4 | 0.00 | 0.00 | 0.00 | 38 | 814.7 |
| 20260507062651 | 11 | 167 | 3.2 | 6.4 | 0.00 | 0.00 | 0.00 | 37 | 814.7 |
| 20260507062543 | 11 | 91 | 3.2 | 6.4 | 0.00 | 0.00 | 0.00 | 43 | 814.7 |
| 20260507062434 | 11 | 108 | 8.0 | 11.3 | 0.00 | 0.00 | 0.00 | 40 | 814.7 |
| 20260507062321 | 11 | 87 | 8.0 | 11.3 | 0.00 | 0.00 | 0.00 | 42 | 814.7 |
| 20260507062212 | 11 | 76 | 8.0 | 11.3 | 0.00 | 0.00 | 0.00 | 43 | 814.7 |
| 20260507061951 | 11 | 130 | 4.8 | 11.3 | 0.00 | 0.00 | 0.00 | 38 | 814.7 |
| 20260507061841 | 11 | 152 | 8.0 | 11.3 | 0.00 | 0.00 | 0.00 | 40 | 814.7 |
| 20260507061512 | 11 | 95 | 11.3 | 16.1 | 0.00 | 0.00 | 0.00 | 42 | 814.6 |
| 20260507061403 | 11 | 110 | 6.4 | 9.7 | 0.00 | 0.00 | 0.00 | 38 | 814.7 |
| 20260507061032 | 11 | 76 | 9.7 | 16.1 | 0.00 | 0.00 | 0.00 | 38 | 814.6 |
| 20260507060921 | 11 | 83 | 9.7 | 14.5 | 0.00 | 0.00 | 0.00 | 38 | 814.6 |
| 20260507060811 | 11 | 93 | 12.9 | 19.3 | 0.00 | 0.00 | 0.00 | 39 | 814.6 |
| 20260507060551 | 11 | 70 | 9.7 | 12.9 | 0.00 | 0.00 | 0.00 | 36 | 814.6 |
| 20260507060441 | 11 | 110 | 11.3 | 17.7 | 0.00 | 0.00 | 0.00 | 39 | 814.6 |
| 20260507060331 | 11 | 109 | 8.0 | 12.9 | 0.00 | 0.00 | 0.00 | 36 | 814.7 |
| 20260507060221 | 11 | 100 | 9.7 | 12.9 | 0.00 | 0.00 | 0.00 | 38 | 814.7 |
| 20260507060111 | 11 | 94 | 6.4 | 11.3 | 0.00 | 0.00 | 0.00 | 39 | 814.7 |
| 20260507060001 | 11 | 116 | 6.4 | 11.3 | 0.00 | 0.00 | 0.00 | 37 | 814.7 |
| 20260507055853 | 11 | 66 | 6.4 | 9.7 | 0.00 | 0.00 | 0.00 | 36 | 814.7 |
| 20260507055741 | 11 | 91 | 6.4 | 9.7 | 0.00 | 0.00 | 0.00 | 38 | 814.7 |
| 20260507055521 | 11 | 66 | 9.7 | 14.5 | 0.00 | 0.00 | 0.00 | 38 | 814.7 |
| 20260507055301 | 11 | 106 | 6.4 | 8.0 | 0.00 | 0.00 | 0.00 | 36 | 814.7 |
| 20260507055041 | 11 | 109 | 6.4 | 14.5 | 0.00 | 0.00 | 0.00 | 35 | 814.6 |
| 20260507054932 | 11 | 89 | 4.8 | 6.4 | 0.00 | 0.00 | 0.00 | 36 | 814.7 |
| 20260507054821 | 11 | 87 | 8.0 | 11.3 | 0.00 | 0.00 | 0.00 | 36 | 814.6 |
| 20260507054711 | 11 | 89 | 6.4 | 9.7 | 0.00 | 0.00 | 0.00 | 37 | 814.7 |
| 20260507054452 | 10 | 43 | 8.0 | 12.9 | 0.00 | 0.00 | 0.00 | 37 | 814.7 |
| 20260507054232 | 10 | 0 | 6.4 | 9.7 | 0.00 | 0.00 | 0.00 | 35 | 814.6 |
| 20260507054121 | 10 | 5 | 6.4 | 9.7 | 0.00 | 0.00 | 0.00 | 35 | 814.6 |
| 20260507053902 | 10 | 0 | 6.4 | 9.7 | 0.00 | 0.00 | 0.00 | 35 | 814.6 |
| 20260507053754 | 10 | 347 | 4.8 | 6.4 | 0.00 | 0.00 | 0.00 | 33 | 814.6 |
| 20260507053644 | 10 | 341 | 4.8 | 6.4 | 0.00 | 0.00 | 0.00 | 33 | 814.6 |
| 20260507053532 | 10 | 349 | 4.8 | 6.4 | 0.00 | 0.00 | 0.00 | 34 | 814.6 |
| 20260507053425 | 10 | 339 | 1.6 | 4.8 | 0.00 | 0.00 | 0.00 | 33 | 814.6 |
| 20260507053311 | 10 | 346 | 3.2 | 4.8 | 0.00 | 0.00 | 0.00 | 34 | 814.6 |
| 20260507053201 | 10 | 335 | 3.2 | 3.2 | 0.00 | 0.00 | 0.00 | 33 | 814.6 |
| 20260507053052 | 10 | 337 | 3.2 | 3.2 | 0.00 | 0.00 | 0.00 | 32 | 814.6 |
| 20260507052832 | 10 | 341 | 4.8 | 6.4 | 0.00 | 0.00 | 0.00 | 34 | 814.6 |
| 20260507052352 | 10 | 339 | 6.4 | 8.0 | 0.00 | 0.00 | 0.00 | 34 | 814.6 |
| 20260507052243 | 10 | 337 | 8.0 | 9.7 | 0.00 | 0.00 | 0.00 | 34 | 814.6 |
| 20260507052132 | 9 | 339 | 6.4 | 9.7 | 0.00 | 0.00 | 0.00 | 35 | 814.6 |
| 20260507052022 | 9 | 341 | 8.0 | 9.7 | 0.00 | 0.00 | 0.00 | 35 | 814.6 |
| 20260507051916 | 9 | 343 | 8.0 | 9.7 | 0.00 | 0.00 | 0.00 | 35 | 814.6 |
| 20260507051802 | 9 | 338 | 9.7 | 12.9 | 0.00 | 0.00 | 0.00 | 35 | 814.6 |
| 20260507051651 | 9 | 2 | 8.0 | 11.3 | 0.00 | 0.00 | 0.00 | 36 | 814.6 |
| 20260507051542 | 9 | 349 | 8.0 | 9.7 | 0.00 | 0.00 | 0.00 | 36 | 814.6 |
| 20260507051432 | 9 | 345 | 8.0 | 9.7 | 0.00 | 0.00 | 0.00 | 36 | 814.6 |
| 20260507051322 | 9 | 334 | 9.7 | 9.7 | 0.00 | 0.00 | 0.00 | 36 | 814.6 |
| 20260507051211 | 9 | 335 | 12.9 | 14.5 | 0.00 | 0.00 | 0.00 | 35 | 814.6 |
| 20260507051102 | 9 | 322 | 9.7 | 12.9 | 0.00 | 0.00 | 0.00 | 35 | 814.6 |
| 20260507050842 | 9 | 321 | 12.9 | 14.5 | 0.00 | 0.00 | 0.00 | 35 | 814.6 |
| 20260507050733 | 9 | 312 | 12.9 | 14.5 | 0.00 | 0.00 | 0.00 | 36 | 814.6 |
| 20260507050621 | 9 | 307 | 14.5 | 16.1 | 0.00 | 0.00 | 0.00 | 36 | 814.6 |
| 20260507050512 | 9 | 314 | 14.5 | 16.1 | 0.00 | 0.00 | 0.00 | 37 | 814.6 |
| 20260507050403 | 9 | 313 | 12.9 | 14.5 | 0.00 | 0.00 | 0.00 | 36 | 814.6 |
| 20260507050143 | 9 | 321 | 14.5 | 19.3 | 0.00 | 0.00 | 0.00 | 36 | 814.6 |
| 20260507050033 | 9 | 315 | 16.1 | 20.9 | 0.00 | 0.00 | 0.00 | 36 | 814.6 |
| 20260507045811 | 9 | 319 | 20.9 | 24.1 | 0.00 | 0.00 | 0.00 | 36 | 814.5 |
| 20260507045702 | 9 | 317 | 19.3 | 22.5 | 0.00 | 0.00 | 0.00 | 36 | 814.5 |
| 20260507045551 | 9 | 320 | 17.7 | 22.5 | 0.00 | 0.00 | 0.00 | 36 | 814.5 |
| 20260507045441 | 9 | 318 | 14.5 | 22.5 | 0.00 | 0.00 | 0.00 | 36 | 814.6 |
| 20260507045334 | 9 | 330 | 12.9 | 17.7 | 0.00 | 0.00 | 0.00 | 36 | 814.6 |
| 20260507045223 | 9 | 324 | 16.1 | 19.3 | 0.00 | 0.00 | 0.00 | 36 | 814.5 |
| 20260507045112 | 9 | 327 | 14.5 | 22.5 | 0.00 | 0.00 | 0.00 | 36 | 814.6 |
| 20260507045003 | 9 | 320 | 14.5 | 19.3 | 0.00 | 0.00 | 0.00 | 36 | 814.3 |
| 20260507044744 | 9 | 317 | 16.1 | 17.7 | 0.00 | 0.00 | 0.00 | 36 | 814.6 |
| 20260507044521 | 9 | 322 | 17.7 | 24.1 | 0.00 | 0.00 | 0.00 | 35 | 814.6 |
| 20260507044301 | 9 | 316 | 17.7 | 22.5 | 0.00 | 0.00 | 0.00 | 35 | 814.3 |